GFSSE_prec_precacc_219.txt.gz
Total_Precipitation_Accumulation
0.40 0.30 0.26 0.09 0.09 0.07 0.08 0.04 0.02 0.03 0.03 0.04 0.04 0.05 0.11 0.14 0.11 0.10 0.11 0.12 0.16 0.17 0.14 0.11 0.19 0.27 0.29 0.37 0.37 0.46 0.34 0.35 0.58 1.28 1.69 1.50 1.58 1.39 1.18 1.32 1.24 1.26 1.75
0.88 0.59 0.66 0.26 0.08 0.05 0.07 0.07 0.10 0.04 0.05 0.08 0.04 0.06 0.12 0.17 0.13 0.11 0.14 0.27 0.37 0.39 0.34 0.23 0.34 0.49 0.46 0.46 0.37 0.40 0.26 0.10 0.14 0.47 1.23 1.41 1.05 0.97 1.20 1.62 1.55 1.29 1.33
1.21 1.01 0.81 0.69 0.22 0.15 0.33 0.12 0.05 0.05 0.04 0.03 0.03 0.04 0.17 0.21 0.21 0.27 0.46 0.45 0.63 0.62 0.46 0.34 0.54 0.78 0.80 0.61 0.43 0.46 0.24 0.10 0.13 0.21 0.53 0.78 1.10 1.29 0.94 1.09 1.32 1.25 1.34
0.96 1.23 0.92 1.07 1.12 0.53 0.43 0.23 0.17 0.10 0.05 0.03 0.12 0.14 0.33 0.25 0.37 0.88 1.15 1.05 0.89 0.84 0.58 0.49 0.52 1.36 1.05 0.85 0.52 0.31 0.21 0.18 0.24 0.20 0.27 0.58 1.10 1.37 0.82 0.68 0.84 1.07 1.31
0.94 0.60 0.96 1.12 1.00 0.80 0.47 0.28 0.43 0.48 0.34 0.08 0.08 0.28 0.45 0.67 1.42 2.37 2.62 1.60 1.70 1.62 1.16 0.90 0.69 1.01 1.19 0.84 0.49 0.32 0.25 0.17 0.23 0.42 0.53 0.62 0.75 1.27 0.90 0.71 0.94 1.08 1.11
1.21 1.42 2.08 1.85 1.56 0.87 0.63 0.82 1.08 1.07 0.82 0.56 0.49 0.71 1.00 1.52 2.45 2.41 1.57 1.38 1.80 3.02 1.63 1.18 0.68 0.39 0.30 0.59 0.62 0.66 0.39 0.23 0.55 0.92 0.89 0.65 0.58 0.93 0.70 0.51 0.66 0.94 0.67
2.60 2.47 3.19 4.34 3.84 2.91 1.91 1.42 1.43 1.65 1.34 1.37 1.77 1.83 1.87 1.84 2.50 1.41 0.69 1.06 2.45 2.34 1.07 0.94 0.57 0.32 0.45 0.22 0.27 0.42 0.39 0.33 0.53 0.95 0.95 1.07 1.30 1.46 0.58 0.64 0.66 0.60 0.59
6.23 5.29 5.62 6.71 5.83 4.59 3.53 2.32 2.32 2.14 1.88 1.91 1.67 2.14 2.46 1.35 1.12 0.77 0.42 0.44 0.64 0.56 0.57 0.47 0.22 0.27 0.43 0.28 0.23 0.26 0.38 0.42 0.96 2.03 2.03 1.12 1.16 1.26 0.72 0.86 0.78 0.57 0.46
4.44 5.86 6.90 7.55 8.35 7.50 4.24 3.28 3.30 3.37 2.92 2.39 2.16 1.95 2.16 1.62 1.25 0.97 0.45 0.32 0.26 0.17 0.30 0.37 0.28 0.36 0.41 0.43 0.47 0.43 0.58 0.78 1.19 2.61 2.13 1.68 0.94 1.34 1.32 0.93 0.73 0.51 0.35
2.47 3.25 3.60 3.74 7.19 11.79 7.99 5.03 4.14 3.79 3.59 2.59 2.39 1.76 1.31 1.54 1.54 1.39 0.58 0.29 0.23 0.16 0.31 0.56 0.65 0.70 0.50 0.52 0.63 0.47 0.65 0.65 0.83 0.66 0.67 0.84 0.70 1.30 1.48 1.24 0.76 0.57 0.47
2.72 2.38 1.89 2.61 3.40 5.97 9.68 6.53 5.18 4.21 2.78 2.60 2.23 1.68 1.18 0.95 0.89 0.83 0.48 0.32 0.27 0.27 0.45 0.76 0.73 0.80 0.98 0.69 0.75 0.81 0.53 0.32 0.63 0.71 0.34 0.62 0.67 1.06 1.09 1.03 0.78 0.69 0.53
1.94 2.27 1.85 1.28 1.36 2.04 4.48 4.27 4.57 4.59 2.74 2.18 1.79 1.30 1.13 0.94 0.55 0.40 0.29 0.26 0.42 0.37 0.42 0.49 0.70 0.86 0.78 0.38 0.40 0.43 0.30 0.55 0.86 1.31 0.62 0.43 0.88 0.94 0.95 0.97 0.78 0.72 0.74
1.33 1.65 1.27 1.16 0.94 1.13 2.23 1.95 2.41 3.15 3.40 2.31 1.98 1.24 1.23 0.86 0.54 0.50 0.31 0.32 0.64 0.42 0.18 0.23 0.38 0.47 0.44 0.41 0.29 0.25 0.29 0.64 0.53 1.36 0.97 0.55 1.15 1.14 1.15 0.86 1.04 1.18 1.04
0.71 0.90 0.92 0.52 0.66 1.01 1.01 1.24 1.52 1.52 3.13 2.89 2.20 1.66 1.35 0.88 0.41 0.33 0.24 0.24 0.23 0.40 0.20 0.14 0.19 0.26 0.37 0.48 0.49 0.36 0.36 0.57 0.47 0.73 0.72 0.50 0.87 1.24 1.04 0.88 0.91 0.99 1.16
0.73 0.83 0.81 0.67 0.64 0.58 0.40 0.53 1.23 1.01 1.78 2.85 2.28 1.81 1.33 0.82 0.39 0.20 0.20 0.23 0.16 0.25 0.33 0.30 0.23 0.30 0.39 0.52 0.56 0.40 0.56 0.67 0.66 0.68 0.58 0.26 0.48 1.04 0.91 0.64 0.78 0.92 0.92
0.72 0.90 0.68 0.63 0.65 0.53 0.38 0.39 0.87 0.88 1.01 2.13 1.76 1.28 1.46 0.86 0.48 0.34 0.31 0.18 0.22 0.23 0.25 0.44 0.41 0.36 0.37 0.38 0.57 0.61 0.66 0.71 0.73 0.90 0.87 0.64 0.46 0.46 0.97 1.10 0.69 0.83 1.02
0.53 0.61 0.49 0.69 0.74 0.70 0.49 0.55 0.74 0.84 0.90 1.40 1.16 1.16 1.44 0.87 0.66 0.49 0.39 0.27 0.18 0.20 0.19 0.22 0.36 0.63 0.70 0.55 0.48 0.70 0.84 0.56 0.52 0.54 0.51 0.40 0.35 0.35 0.52 1.02 1.40 1.01 0.71
0.22 0.48 0.68 0.87 1.18 1.12 0.46 0.58 0.68 0.74 0.82 1.12 0.95 1.04 1.44 0.85 0.61 0.53 0.44 0.33 0.26 0.18 0.16 0.12 0.13 0.32 0.52 0.46 0.35 0.43 0.50 0.47 0.38 0.31 0.32 0.25 0.23 0.20 0.30 0.43 0.74 1.65 1.41
0.19 0.34 0.63 0.94 1.09 1.35 1.21 1.47 1.24 0.92 0.78 0.86 0.79 0.92 1.52 1.05 0.82 0.49 0.34 0.34 0.29 0.19 0.13 0.12 0.13 0.11 0.21 0.28 0.35 0.37 0.36 0.39 0.47 0.49 0.32 0.29 0.24 0.24 0.36 0.59 0.71 0.87 1.06
0.07 0.33 0.74 1.09 1.62 2.78 1.94 1.12 0.66 0.69 0.74 0.74 0.85 0.89 1.45 0.95 0.91 0.94 0.55 0.48 0.42 0.25 0.14 0.11 0.11 0.17 0.11 0.16 0.33 0.41 0.31 0.28 0.39 0.60 0.69 0.54 0.35 0.32 0.28 0.60 0.71 0.56 0.65
0.16 0.50 0.80 0.85 0.97 0.85 0.42 0.38 0.38 0.51 0.76 0.88 0.95 0.78 1.44 1.18 0.76 1.01 1.10 0.62 0.53 0.31 0.17 0.14 0.20 0.18 0.18 0.19 0.46 0.39 0.31 0.27 0.30 0.27 0.43 0.45 0.45 0.40 0.39 0.44 0.76 0.54 0.46
0.33 0.38 0.24 0.10 0.07 0.11 0.13 0.17 0.18 0.22 0.46 0.56 1.16 0.87 1.06 1.25 0.62 0.59 0.87 0.83 0.69 0.46 0.38 0.25 0.20 0.17 0.16 0.23 0.32 0.28 0.30 0.20 0.16 0.21 0.22 0.23 0.26 0.44 0.46 0.55 0.62 0.54 0.57
0.04 0.10 0.07 0.06 0.04 0.04 0.07 0.12 0.20 0.21 0.33 0.56 1.22 1.28 0.91 1.24 0.85 0.51 0.67 0.81 0.82 0.69 0.56 0.34 0.32 0.29 0.19 0.18 0.32 0.30 0.28 0.20 0.14 0.09 0.14 0.21 0.20 0.20 0.24 0.42 0.52 0.51 0.62
0.07 0.03 0.09 0.13 0.07 0.06 0.05 0.09 0.10 0.13 0.16 0.30 0.64 0.94 1.04 1.08 0.96 0.71 0.70 0.75 0.84 0.64 0.53 0.39 0.38 0.41 0.45 0.32 0.38 0.38 0.23 0.20 0.30 0.26 0.17 0.24 0.30 0.23 0.23 0.35 0.37 0.38 0.55
0.04 0.09 0.16 0.16 0.16 0.18 0.14 0.15 0.16 0.16 0.24 0.26 0.48 1.01 1.12 1.19 1.36 1.14 1.01 1.11 0.94 0.91 0.65 0.56 0.53 0.57 0.51 0.43 0.30 0.34 0.32 0.21 0.13 0.21 0.22 0.19 0.31 0.24 0.24 0.27 0.36 0.45 0.56
0.07 0.14 0.24 0.23 0.26 0.30 0.29 0.24 0.29 0.33 0.26 0.26 0.39 0.93 1.19 1.24 1.20 1.28 1.75 1.79 1.57 1.38 1.40 1.08 0.87 0.74 0.60 0.56 0.55 0.49 0.46 0.47 0.37 0.44 0.43 0.27 0.28 0.29 0.30 0.27 0.21 0.23 0.36

GFSSE_prec_precacc_222.txt.gz
Total_Precipitation_Accumulation
0.40 0.30 0.26 0.09 0.09 0.07 0.08 0.04 0.02 0.03 0.03 0.04 0.04 0.05 0.11 0.14 0.11 0.10 0.11 0.12 0.16 0.17 0.14 0.11 0.19 0.27 0.29 0.37 0.37 0.46 0.34 0.35 0.58 1.28 1.69 1.50 1.58 1.39 1.18 1.32 1.24 1.26 1.75
0.88 0.59 0.66 0.26 0.08 0.05 0.07 0.07 0.10 0.04 0.05 0.08 0.04 0.06 0.12 0.17 0.13 0.11 0.14 0.27 0.37 0.39 0.34 0.23 0.34 0.49 0.46 0.46 0.37 0.40 0.26 0.10 0.14 0.47 1.23 1.41 1.05 0.97 1.20 1.62 1.55 1.29 1.33
1.21 1.01 0.81 0.69 0.22 0.15 0.33 0.12 0.05 0.05 0.04 0.03 0.03 0.04 0.17 0.21 0.21 0.27 0.46 0.45 0.63 0.62 0.46 0.34 0.54 0.78 0.80 0.61 0.43 0.46 0.24 0.10 0.13 0.21 0.53 0.78 1.10 1.29 0.94 1.09 1.32 1.25 1.34
0.96 1.23 0.92 1.07 1.12 0.53 0.43 0.23 0.17 0.10 0.05 0.03 0.12 0.14 0.33 0.25 0.37 0.88 1.15 1.05 0.89 0.84 0.58 0.49 0.52 1.36 1.05 0.85 0.52 0.31 0.21 0.18 0.24 0.20 0.27 0.58 1.10 1.37 0.82 0.68 0.84 1.07 1.31
0.94 0.60 0.96 1.12 1.00 0.80 0.47 0.28 0.43 0.48 0.34 0.08 0.08 0.28 0.45 0.67 1.42 2.37 2.62 1.60 1.70 1.62 1.16 0.90 0.69 1.01 1.19 0.84 0.49 0.32 0.25 0.17 0.23 0.42 0.53 0.62 0.75 1.27 0.90 0.71 0.94 1.08 1.11
1.21 1.42 2.08 1.85 1.56 0.87 0.63 0.82 1.08 1.07 0.82 0.56 0.49 0.71 1.00 1.52 2.45 2.41 1.57 1.38 1.80 3.02 1.63 1.18 0.68 0.39 0.30 0.59 0.62 0.66 0.39 0.23 0.55 0.92 0.89 0.65 0.58 0.93 0.70 0.51 0.66 0.94 0.67
2.60 2.47 3.19 4.34 3.84 2.91 1.91 1.42 1.43 1.65 1.34 1.37 1.77 1.83 1.87 1.84 2.50 1.41 0.69 1.06 2.45 2.34 1.07 0.94 0.57 0.32 0.45 0.22 0.27 0.42 0.39 0.33 0.53 0.95 0.95 1.07 1.31 1.46 0.58 0.64 0.66 0.60 0.59
6.23 5.29 5.62 6.71 5.83 4.59 3.53 2.32 2.32 2.14 1.88 1.91 1.67 2.14 2.46 1.35 1.12 0.77 0.42 0.44 0.64 0.56 0.57 0.47 0.22 0.27 0.43 0.28 0.23 0.26 0.38 0.42 0.96 2.03 2.03 1.12 1.17 1.26 0.72 0.86 0.78 0.57 0.46
4.44 5.86 6.90 7.55 8.35 7.50 4.24 3.28 3.30 3.37 2.92 2.39 2.16 1.95 2.16 1.62 1.25 0.97 0.45 0.32 0.26 0.17 0.30 0.37 0.28 0.36 0.41 0.43 0.47 0.43 0.58 0.78 1.19 2.61 2.13 1.68 0.98 1.35 1.32 0.93 0.73 0.51 0.35
2.47 3.25 3.60 3.74 7.19 11.79 7.99 5.03 4.14 3.79 3.59 2.59 2.39 1.76 1.31 1.54 1.54 1.39 0.58 0.29 0.23 0.16 0.31 0.56 0.65 0.70 0.50 0.52 0.63 0.47 0.65 0.65 0.83 0.66 0.67 0.84 0.72 1.31 1.48 1.24 0.76 0.57 0.47
2.72 2.38 1.89 2.61 3.40 5.97 9.68 6.53 5.18 4.21 2.78 2.60 2.23 1.68 1.18 0.95 0.89 0.83 0.48 0.32 0.27 0.27 0.45 0.76 0.73 0.80 0.98 0.69 0.75 0.81 0.53 0.32 0.63 0.71 0.34 0.62 0.67 1.06 1.09 1.03 0.78 0.69 0.53
1.94 2.27 1.85 1.28 1.36 2.04 4.48 4.27 4.57 4.59 2.74 2.18 1.79 1.30 1.13 0.94 0.55 0.40 0.29 0.26 0.42 0.37 0.42 0.49 0.70 0.86 0.78 0.38 0.40 0.43 0.30 0.55 0.86 1.31 0.62 0.43 0.88 0.94 0.95 0.97 0.78 0.72 0.74
1.33 1.65 1.27 1.16 0.94 1.13 2.23 1.95 2.41 3.15 3.40 2.31 1.98 1.24 1.23 0.86 0.54 0.50 0.31 0.32 0.64 0.42 0.18 0.23 0.38 0.47 0.44 0.41 0.29 0.25 0.29 0.64 0.53 1.36 0.97 0.55 1.15 1.14 1.15 0.86 1.04 1.18 1.04
0.71 0.90 0.92 0.52 0.66 1.01 1.01 1.24 1.52 1.52 3.13 2.89 2.20 1.66 1.35 0.88 0.41 0.33 0.24 0.24 0.23 0.40 0.20 0.14 0.19 0.26 0.37 0.48 0.49 0.36 0.36 0.57 0.47 0.73 0.72 0.50 0.87 1.24 1.04 0.88 0.91 0.99 1.16
0.73 0.83 0.81 0.67 0.64 0.58 0.40 0.53 1.23 1.01 1.78 2.85 2.28 1.81 1.33 0.82 0.39 0.20 0.20 0.23 0.16 0.25 0.33 0.30 0.23 0.30 0.39 0.52 0.56 0.40 0.56 0.67 0.66 0.68 0.58 0.26 0.48 1.04 0.91 0.64 0.78 0.92 0.92
0.72 0.90 0.68 0.63 0.65 0.53 0.38 0.39 0.87 0.88 1.01 2.13 1.76 1.28 1.46 0.86 0.48 0.34 0.31 0.18 0.22 0.23 0.25 0.44 0.41 0.36 0.37 0.38 0.57 0.61 0.66 0.71 0.73 0.90 0.87 0.64 0.46 0.46 0.97 1.10 0.69 0.83 1.02
0.53 0.61 0.49 0.70 0.74 0.70 0.49 0.55 0.74 0.84 0.90 1.40 1.16 1.16 1.44 0.87 0.66 0.49 0.39 0.27 0.18 0.20 0.19 0.22 0.36 0.63 0.70 0.55 0.48 0.70 0.84 0.56 0.52 0.54 0.51 0.40 0.35 0.35 0.52 1.02 1.40 1.01 0.72
0.23 0.51 0.73 0.93 1.19 1.12 0.46 0.58 0.68 0.74 0.82 1.12 0.95 1.04 1.44 0.85 0.61 0.53 0.44 0.33 0.26 0.18 0.16 0.12 0.13 0.32 0.52 0.46 0.35 0.43 0.50 0.47 0.38 0.31 0.32 0.25 0.23 0.20 0.30 0.43 0.74 1.65 1.42
0.21 0.38 0.65 0.97 1.13 1.36 1.22 1.47 1.24 0.92 0.78 0.86 0.79 0.92 1.52 1.05 0.82 0.49 0.34 0.34 0.29 0.19 0.13 0.12 0.13 0.11 0.21 0.28 0.35 0.37 0.36 0.39 0.47 0.49 0.32 0.29 0.24 0.24 0.36 0.59 0.71 0.87 1.06
0.09 0.38 0.78 1.15 1.67 2.83 1.97 1.13 0.66 0.69 0.74 0.74 0.85 0.89 1.45 0.96 0.91 0.94 0.55 0.48 0.42 0.25 0.14 0.11 0.11 0.17 0.11 0.16 0.33 0.41 0.31 0.28 0.39 0.60 0.69 0.54 0.35 0.32 0.28 0.60 0.71 0.56 0.65
0.16 0.53 0.83 0.88 1.00 0.90 0.46 0.40 0.38 0.51 0.76 0.89 0.96 0.79 1.45 1.19 0.78 1.02 1.11 0.62 0.53 0.32 0.18 0.14 0.20 0.18 0.18 0.19 0.46 0.39 0.31 0.27 0.30 0.27 0.43 0.45 0.45 0.40 0.39 0.44 0.76 0.54 0.46
0.33 0.38 0.25 0.13 0.07 0.11 0.15 0.19 0.18 0.22 0.46 0.56 1.17 0.88 1.07 1.25 0.65 0.61 0.89 0.86 0.73 0.50 0.45 0.33 0.26 0.20 0.17 0.23 0.32 0.28 0.30 0.20 0.16 0.21 0.22 0.23 0.26 0.44 0.46 0.55 0.62 0.54 0.57
0.04 0.10 0.07 0.06 0.04 0.04 0.08 0.12 0.20 0.21 0.33 0.56 1.22 1.28 0.91 1.24 0.85 0.51 0.68 0.84 0.88 0.73 0.61 0.41 0.42 0.36 0.25 0.22 0.35 0.31 0.29 0.20 0.14 0.09 0.14 0.21 0.20 0.20 0.24 0.42 0.52 0.51 0.62
0.07 0.03 0.09 0.13 0.07 0.06 0.06 0.09 0.10 0.13 0.16 0.30 0.64 0.94 1.04 1.08 0.96 0.71 0.70 0.75 0.84 0.64 0.53 0.40 0.39 0.42 0.47 0.35 0.40 0.40 0.24 0.20 0.31 0.26 0.17 0.24 0.30 0.23 0.23 0.35 0.37 0.38 0.55
0.04 0.09 0.16 0.16 0.16 0.18 0.14 0.15 0.16 0.16 0.24 0.26 0.48 1.01 1.12 1.19 1.36 1.14 1.01 1.11 0.94 0.91 0.65 0.57 0.53 0.57 0.52 0.44 0.31 0.35 0.32 0.22 0.14 0.21 0.22 0.19 0.31 0.24 0.24 0.27 0.36 0.45 0.56
0.07 0.14 0.24 0.23 0.26 0.30 0.29 0.24 0.29 0.33 0.26 0.26 0.39 0.93 1.19 1.24 1.20 1.28 1.75 1.79 1.57 1.38 1.40 1.08 0.88 0.74 0.60 0.57 0.56 0.50 0.47 0.49 0.39 0.46 0.44 0.27 0.28 0.29 0.30 0.27 0.21 0.23 0.36

GFSSE_prec_precacc_225.txt.gz
Total_Precipitation_Accumulation
0.40 0.30 0.26 0.09 0.09 0.07 0.08 0.04 0.02 0.03 0.03 0.04 0.04 0.05 0.11 0.14 0.11 0.10 0.11 0.12 0.16 0.17 0.14 0.11 0.19 0.27 0.29 0.37 0.37 0.46 0.34 0.35 0.58 1.28 1.69 1.50 1.58 1.39 1.18 1.32 1.24 1.26 1.75
0.88 0.59 0.66 0.26 0.08 0.05 0.07 0.07 0.10 0.04 0.05 0.08 0.04 0.06 0.12 0.17 0.13 0.11 0.14 0.27 0.37 0.39 0.34 0.23 0.34 0.49 0.46 0.46 0.37 0.40 0.26 0.10 0.14 0.47 1.23 1.41 1.05 0.97 1.20 1.62 1.55 1.29 1.33
1.21 1.01 0.81 0.69 0.22 0.15 0.33 0.12 0.05 0.05 0.04 0.03 0.03 0.04 0.17 0.21 0.21 0.27 0.46 0.45 0.63 0.62 0.46 0.34 0.54 0.78 0.80 0.61 0.43 0.46 0.24 0.10 0.13 0.21 0.53 0.78 1.10 1.29 0.94 1.09 1.32 1.25 1.34
0.96 1.23 0.92 1.07 1.12 0.53 0.43 0.23 0.17 0.10 0.05 0.03 0.12 0.14 0.33 0.25 0.37 0.88 1.15 1.05 0.89 0.84 0.58 0.49 0.52 1.36 1.05 0.85 0.52 0.31 0.21 0.18 0.24 0.20 0.27 0.58 1.10 1.37 0.82 0.68 0.84 1.07 1.31
0.94 0.60 0.96 1.12 1.00 0.80 0.47 0.28 0.43 0.48 0.34 0.08 0.08 0.28 0.45 0.67 1.42 2.37 2.62 1.60 1.70 1.62 1.16 0.90 0.69 1.01 1.19 0.84 0.49 0.32 0.25 0.17 0.23 0.42 0.53 0.62 0.75 1.27 0.90 0.71 0.94 1.08 1.11
1.21 1.42 2.08 1.85 1.56 0.87 0.63 0.82 1.08 1.07 0.82 0.56 0.49 0.71 1.00 1.52 2.45 2.41 1.57 1.38 1.80 3.02 1.63 1.18 0.68 0.39 0.30 0.59 0.62 0.66 0.39 0.23 0.55 0.92 0.89 0.65 0.58 0.93 0.70 0.51 0.66 0.94 0.67
2.60 2.47 3.19 4.34 3.84 2.91 1.91 1.42 1.43 1.65 1.34 1.37 1.77 1.83 1.87 1.84 2.50 1.41 0.69 1.06 2.45 2.34 1.07 0.94 0.57 0.32 0.45 0.22 0.27 0.42 0.39 0.33 0.53 0.95 0.95 1.07 1.31 1.46 0.58 0.64 0.66 0.60 0.59
6.23 5.29 5.62 6.71 5.83 4.59 3.53 2.32 2.32 2.14 1.88 1.91 1.67 2.14 2.46 1.35 1.12 0.77 0.42 0.44 0.64 0.56 0.57 0.47 0.22 0.27 0.43 0.28 0.23 0.26 0.38 0.42 0.96 2.03 2.03 1.12 1.17 1.26 0.72 0.86 0.78 0.57 0.46
4.44 5.86 6.90 7.55 8.35 7.50 4.24 3.28 3.30 3.37 2.92 2.39 2.16 1.95 2.16 1.62 1.25 0.97 0.45 0.32 0.26 0.17 0.30 0.37 0.28 0.36 0.41 0.43 0.47 0.43 0.58 0.78 1.19 2.61 2.13 1.68 0.98 1.35 1.32 0.93 0.73 0.51 0.35
2.47 3.25 3.60 3.74 7.19 11.79 7.99 5.03 4.14 3.79 3.59 2.59 2.39 1.76 1.31 1.54 1.54 1.39 0.58 0.29 0.23 0.16 0.31 0.56 0.65 0.70 0.50 0.52 0.63 0.47 0.65 0.65 0.83 0.66 0.67 0.84 0.72 1.31 1.48 1.24 0.76 0.57 0.47
2.72 2.38 1.89 2.61 3.40 5.97 9.68 6.53 5.18 4.21 2.78 2.60 2.23 1.68 1.18 0.95 0.89 0.83 0.48 0.32 0.27 0.27 0.45 0.76 0.73 0.80 0.98 0.69 0.75 0.81 0.53 0.32 0.63 0.71 0.34 0.62 0.67 1.06 1.09 1.03 0.78 0.69 0.53
1.94 2.27 1.85 1.28 1.36 2.04 4.48 4.27 4.57 4.59 2.74 2.18 1.79 1.30 1.13 0.94 0.55 0.40 0.29 0.26 0.42 0.37 0.42 0.49 0.70 0.86 0.78 0.38 0.40 0.43 0.30 0.55 0.86 1.31 0.62 0.43 0.88 0.94 0.95 0.97 0.78 0.72 0.74
1.33 1.65 1.27 1.16 0.94 1.13 2.23 1.95 2.41 3.15 3.40 2.31 1.98 1.24 1.23 0.86 0.54 0.50 0.31 0.32 0.64 0.42 0.18 0.23 0.38 0.47 0.44 0.41 0.29 0.25 0.29 0.64 0.53 1.36 0.97 0.55 1.15 1.14 1.15 0.86 1.04 1.18 1.04
0.71 0.90 0.92 0.52 0.66 1.01 1.01 1.24 1.52 1.52 3.13 2.89 2.20 1.66 1.35 0.88 0.41 0.33 0.24 0.24 0.23 0.40 0.20 0.14 0.19 0.26 0.37 0.48 0.49 0.36 0.36 0.57 0.47 0.73 0.72 0.50 0.87 1.24 1.04 0.88 0.91 0.99 1.16
0.73 0.83 0.81 0.67 0.64 0.58 0.40 0.53 1.23 1.01 1.78 2.85 2.28 1.81 1.33 0.82 0.39 0.20 0.20 0.23 0.16 0.25 0.33 0.30 0.23 0.30 0.39 0.52 0.56 0.40 0.56 0.67 0.66 0.68 0.58 0.26 0.48 1.04 0.91 0.64 0.78 0.92 0.92
0.72 0.90 0.68 0.64 0.65 0.53 0.38 0.39 0.87 0.88 1.01 2.13 1.76 1.28 1.46 0.86 0.48 0.34 0.31 0.18 0.22 0.23 0.25 0.44 0.41 0.36 0.37 0.38 0.57 0.61 0.66 0.71 0.73 0.90 0.87 0.64 0.46 0.46 0.97 1.10 0.69 0.83 1.02
0.53 0.61 0.51 0.71 0.78 0.71 0.49 0.55 0.74 0.84 0.90 1.40 1.16 1.16 1.44 0.87 0.66 0.49 0.39 0.27 0.18 0.20 0.19 0.22 0.36 0.63 0.70 0.55 0.48 0.70 0.84 0.56 0.52 0.54 0.51 0.40 0.35 0.35 0.52 1.02 1.40 1.01 0.72
0.23 0.52 0.77 0.95 1.26 1.17 0.49 0.58 0.68 0.74 0.82 1.12 0.95 1.04 1.44 0.85 0.61 0.53 0.44 0.33 0.26 0.18 0.16 0.12 0.13 0.32 0.52 0.46 0.35 0.43 0.50 0.47 0.38 0.31 0.32 0.25 0.23 0.20 0.30 0.43 0.74 1.65 1.42
0.21 0.38 0.67 1.00 1.16 1.39 1.26 1.53 1.25 0.92 0.78 0.86 0.79 0.92 1.52 1.05 0.82 0.49 0.34 0.35 0.29 0.19 0.13 0.12 0.13 0.11 0.21 0.28 0.35 0.37 0.36 0.39 0.47 0.49 0.32 0.29 0.24 0.24 0.36 0.59 0.71 0.87 1.06
0.09 0.38 0.79 1.19 1.70 2.88 2.06 1.19 0.69 0.69 0.74 0.74 0.85 0.89 1.45 0.96 0.91 0.95 0.56 0.49 0.42 0.25 0.14 0.11 0.11 0.17 0.11 0.16 0.33 0.41 0.31 0.28 0.39 0.60 0.69 0.54 0.35 0.32 0.28 0.60 0.71 0.56 0.65
0.16 0.53 0.85 0.91 1.03 0.94 0.49 0.41 0.39 0.52 0.76 0.89 0.96 0.79 1.45 1.20 0.78 1.03 1.13 0.64 0.55 0.32 0.19 0.16 0.21 0.18 0.18 0.19 0.46 0.39 0.31 0.27 0.30 0.27 0.43 0.45 0.45 0.40 0.39 0.44 0.76 0.54 0.46
0.33 0.38 0.26 0.15 0.10 0.16 0.17 0.21 0.21 0.24 0.46 0.56 1.17 0.88 1.07 1.26 0.68 0.65 0.93 0.90 0.82 0.57 0.53 0.50 0.38 0.28 0.22 0.29 0.36 0.29 0.30 0.20 0.16 0.21 0.22 0.23 0.26 0.44 0.46 0.55 0.62 0.54 0.57
0.04 0.10 0.08 0.08 0.07 0.07 0.09 0.12 0.21 0.22 0.34 0.56 1.22 1.28 0.91 1.24 0.87 0.55 0.73 0.86 0.90 0.75 0.63 0.50 0.55 0.46 0.33 0.30 0.41 0.38 0.32 0.21 0.14 0.09 0.14 0.21 0.20 0.20 0.24 0.42 0.52 0.51 0.62
0.07 0.03 0.09 0.13 0.07 0.07 0.07 0.09 0.11 0.13 0.16 0.30 0.64 0.94 1.04 1.08 0.96 0.71 0.70 0.75 0.84 0.64 0.53 0.40 0.39 0.42 0.48 0.36 0.42 0.42 0.26 0.22 0.33 0.28 0.17 0.24 0.30 0.23 0.23 0.35 0.37 0.38 0.55
0.04 0.09 0.16 0.16 0.17 0.18 0.14 0.15 0.17 0.16 0.24 0.26 0.48 1.01 1.12 1.19 1.36 1.14 1.01 1.11 0.94 0.91 0.65 0.57 0.53 0.57 0.52 0.44 0.31 0.35 0.32 0.22 0.14 0.22 0.23 0.20 0.31 0.24 0.24 0.27 0.36 0.45 0.56
0.07 0.14 0.24 0.23 0.27 0.30 0.29 0.24 0.29 0.33 0.26 0.26 0.39 0.93 1.19 1.24 1.20 1.28 1.75 1.79 1.57 1.38 1.40 1.08 0.88 0.74 0.60 0.57 0.56 0.51 0.48 0.50 0.40 0.46 0.45 0.28 0.28 0.29 0.30 0.27 0.21 0.23 0.36

GFSSE_prec_precacc_228.txt.gz
Total_Precipitation_Accumulation
0.40 0.30 0.26 0.09 0.09 0.07 0.08 0.04 0.02 0.03 0.03 0.04 0.04 0.05 0.11 0.14 0.11 0.10 0.11 0.12 0.16 0.17 0.14 0.11 0.19 0.27 0.29 0.37 0.37 0.46 0.34 0.35 0.58 1.29 1.70 1.50 1.58 1.39 1.18 1.32 1.24 1.26 1.75
0.88 0.59 0.66 0.26 0.08 0.05 0.07 0.07 0.10 0.04 0.05 0.08 0.04 0.06 0.12 0.17 0.13 0.11 0.14 0.27 0.37 0.39 0.34 0.23 0.34 0.49 0.46 0.46 0.37 0.40 0.26 0.10 0.14 0.47 1.23 1.41 1.05 0.97 1.20 1.62 1.55 1.29 1.33
1.21 1.01 0.81 0.69 0.22 0.15 0.33 0.12 0.05 0.05 0.04 0.03 0.03 0.04 0.17 0.21 0.21 0.27 0.46 0.45 0.63 0.62 0.46 0.34 0.54 0.78 0.80 0.61 0.43 0.46 0.24 0.10 0.13 0.21 0.53 0.78 1.10 1.29 0.94 1.09 1.32 1.25 1.34
0.96 1.23 0.92 1.07 1.12 0.53 0.43 0.23 0.17 0.10 0.05 0.03 0.12 0.14 0.33 0.25 0.37 0.88 1.15 1.05 0.89 0.84 0.58 0.49 0.52 1.36 1.05 0.85 0.52 0.31 0.21 0.18 0.24 0.20 0.27 0.58 1.10 1.37 0.82 0.68 0.84 1.07 1.31
0.94 0.60 0.96 1.12 1.00 0.80 0.47 0.28 0.43 0.48 0.34 0.08 0.08 0.28 0.45 0.67 1.42 2.37 2.62 1.60 1.70 1.62 1.16 0.90 0.69 1.01 1.19 0.84 0.49 0.32 0.25 0.17 0.23 0.42 0.53 0.62 0.75 1.27 0.90 0.71 0.94 1.08 1.11
1.21 1.42 2.08 1.85 1.56 0.87 0.63 0.82 1.08 1.07 0.82 0.56 0.49 0.71 1.00 1.52 2.45 2.41 1.57 1.38 1.80 3.02 1.63 1.18 0.68 0.39 0.30 0.59 0.62 0.66 0.39 0.23 0.55 0.92 0.89 0.65 0.58 0.93 0.70 0.51 0.66 0.94 0.67
2.60 2.47 3.19 4.34 3.84 2.91 1.91 1.42 1.43 1.65 1.34 1.37 1.77 1.83 1.87 1.84 2.50 1.41 0.69 1.06 2.45 2.34 1.07 0.94 0.57 0.32 0.45 0.22 0.27 0.42 0.39 0.33 0.53 0.95 0.95 1.07 1.31 1.46 0.58 0.64 0.66 0.60 0.59
6.23 5.29 5.62 6.71 5.83 4.59 3.53 2.32 2.32 2.14 1.88 1.91 1.67 2.14 2.46 1.35 1.12 0.77 0.42 0.44 0.64 0.56 0.57 0.47 0.22 0.27 0.43 0.28 0.23 0.26 0.38 0.42 0.96 2.03 2.03 1.12 1.17 1.26 0.72 0.86 0.78 0.57 0.46
4.44 5.86 6.90 7.55 8.35 7.50 4.24 3.28 3.30 3.37 2.92 2.39 2.16 1.95 2.16 1.62 1.25 0.97 0.45 0.32 0.26 0.17 0.30 0.37 0.28 0.36 0.41 0.43 0.47 0.43 0.58 0.78 1.19 2.61 2.13 1.68 0.98 1.35 1.32 0.93 0.73 0.51 0.35
2.47 3.25 3.60 3.74 7.19 11.79 7.99 5.03 4.14 3.79 3.59 2.59 2.39 1.76 1.31 1.54 1.54 1.39 0.58 0.29 0.23 0.16 0.31 0.56 0.65 0.70 0.50 0.52 0.63 0.47 0.65 0.65 0.83 0.66 0.67 0.84 0.72 1.31 1.48 1.24 0.76 0.57 0.47
2.72 2.38 1.89 2.61 3.40 5.97 9.68 6.53 5.18 4.21 2.78 2.60 2.23 1.68 1.18 0.95 0.89 0.83 0.48 0.32 0.27 0.27 0.45 0.76 0.73 0.80 0.98 0.69 0.75 0.81 0.53 0.32 0.63 0.71 0.34 0.62 0.67 1.07 1.09 1.03 0.78 0.69 0.53
1.94 2.27 1.85 1.28 1.36 2.04 4.48 4.27 4.57 4.59 2.74 2.18 1.79 1.30 1.13 0.94 0.55 0.40 0.29 0.26 0.42 0.37 0.42 0.49 0.70 0.86 0.78 0.38 0.40 0.43 0.30 0.55 0.86 1.31 0.62 0.43 0.88 0.94 0.95 0.97 0.78 0.72 0.74
1.33 1.65 1.27 1.16 0.94 1.14 2.23 1.95 2.41 3.15 3.40 2.31 1.98 1.24 1.23 0.86 0.54 0.50 0.31 0.32 0.64 0.42 0.18 0.23 0.38 0.47 0.44 0.41 0.29 0.25 0.29 0.64 0.53 1.36 0.97 0.55 1.15 1.15 1.16 0.86 1.04 1.18 1.05
0.71 0.90 0.92 0.52 0.66 1.01 1.01 1.24 1.52 1.52 3.14 2.89 2.20 1.66 1.35 0.88 0.41 0.33 0.24 0.24 0.23 0.40 0.20 0.14 0.19 0.26 0.37 0.48 0.49 0.36 0.36 0.57 0.47 0.73 0.72 0.50 0.87 1.24 1.04 0.88 0.91 0.99 1.16
0.73 0.83 0.81 0.67 0.64 0.58 0.40 0.53 1.23 1.01 1.79 2.85 2.28 1.81 1.33 0.82 0.39 0.20 0.20 0.23 0.16 0.25 0.33 0.30 0.23 0.30 0.39 0.52 0.56 0.40 0.56 0.67 0.66 0.68 0.58 0.26 0.48 1.04 0.91 0.64 0.78 0.92 0.92
0.72 0.90 0.68 0.64 0.65 0.53 0.38 0.39 0.87 0.88 1.01 2.13 1.76 1.28 1.46 0.86 0.48 0.34 0.31 0.18 0.22 0.23 0.25 0.44 0.41 0.36 0.37 0.38 0.57 0.61 0.66 0.71 0.73 0.90 0.87 0.64 0.46 0.46 0.97 1.10 0.69 0.83 1.02
0.53 0.61 0.51 0.71 0.78 0.71 0.49 0.55 0.74 0.84 0.90 1.40 1.16 1.16 1.44 0.87 0.66 0.49 0.39 0.27 0.18 0.20 0.19 0.22 0.36 0.63 0.70 0.55 0.48 0.70 0.84 0.56 0.52 0.54 0.51 0.40 0.35 0.35 0.52 1.02 1.40 1.01 0.72
0.23 0.52 0.77 0.95 1.27 1.19 0.49 0.59 0.68 0.74 0.82 1.12 0.95 1.04 1.44 0.85 0.61 0.53 0.44 0.33 0.26 0.18 0.16 0.12 0.13 0.32 0.52 0.46 0.35 0.43 0.50 0.47 0.38 0.31 0.32 0.25 0.23 0.20 0.30 0.43 0.74 1.65 1.42
0.21 0.38 0.67 1.00 1.17 1.40 1.28 1.57 1.27 0.92 0.78 0.86 0.79 0.92 1.52 1.05 0.82 0.49 0.34 0.35 0.29 0.19 0.13 0.12 0.13 0.11 0.21 0.28 0.35 0.37 0.36 0.39 0.47 0.49 0.32 0.29 0.24 0.24 0.36 0.59 0.71 0.87 1.06
0.09 0.38 0.79 1.20 1.72 2.90 2.09 1.21 0.72 0.71 0.74 0.74 0.85 0.90 1.45 0.96 0.91 0.95 0.56 0.49 0.42 0.25 0.15 0.12 0.11 0.17 0.11 0.16 0.33 0.41 0.31 0.28 0.39 0.60 0.69 0.54 0.35 0.32 0.28 0.60 0.71 0.56 0.65
0.16 0.53 0.85 0.92 1.05 0.95 0.50 0.42 0.42 0.58 0.78 0.89 0.96 0.80 1.45 1.20 0.79 1.03 1.14 0.66 0.57 0.36 0.26 0.18 0.21 0.19 0.19 0.20 0.46 0.39 0.31 0.27 0.30 0.27 0.43 0.45 0.45 0.40 0.39 0.44 0.76 0.54 0.46
0.33 0.38 0.26 0.15 0.11 0.17 0.18 0.23 0.23 0.29 0.47 0.56 1.17 0.89 1.10 1.29 0.69 0.67 0.97 1.01 0.93 0.62 0.58 0.53 0.40 0.28 0.23 0.30 0.37 0.29 0.30 0.20 0.16 0.21 0.22 0.23 0.26 0.44 0.46 0.55 0.62 0.54 0.57
0.04 0.10 0.08 0.08 0.09 0.10 0.11 0.14 0.22 0.22 0.34 0.56 1.22 1.29 0.93 1.28 0.91 0.59 0.78 0.89 0.92 0.76 0.64 0.52 0.56 0.46 0.33 0.30 0.41 0.39 0.33 0.22 0.15 0.09 0.14 0.21 0.20 0.20 0.24 0.42 0.52 0.51 0.62
0.07 0.03 0.09 0.13 0.08 0.08 0.09 0.09 0.11 0.13 0.17 0.30 0.64 0.94 1.04 1.08 0.96 0.71 0.70 0.76 0.85 0.64 0.53 0.40 0.39 0.42 0.48 0.36 0.42 0.42 0.26 0.25 0.35 0.29 0.17 0.24 0.30 0.23 0.23 0.35 0.37 0.38 0.55
0.04 0.09 0.16 0.16 0.17 0.19 0.15 0.16 0.18 0.17 0.24 0.26 0.48 1.01 1.12 1.19 1.36 1.14 1.01 1.11 0.94 0.91 0.65 0.57 0.53 0.57 0.52 0.44 0.31 0.35 0.33 0.22 0.15 0.23 0.23 0.20 0.31 0.24 0.24 0.27 0.36 0.45 0.56
0.07 0.14 0.24 0.23 0.27 0.30 0.30 0.25 0.30 0.34 0.27 0.26 0.39 0.93 1.19 1.24 1.20 1.28 1.75 1.79 1.57 1.38 1.40 1.08 0.88 0.74 0.60 0.57 0.56 0.51 0.48 0.50 0.40 0.47 0.46 0.29 0.29 0.29 0.30 0.27 0.21 0.23 0.36

GFSSE_prec_precacc_231.txt.gz
Total_Precipitation_Accumulation
0.40 0.30 0.26 0.09 0.09 0.07 0.08 0.04 0.02 0.03 0.03 0.04 0.04 0.05 0.11 0.14 0.11 0.10 0.11 0.12 0.16 0.17 0.14 0.11 0.19 0.27 0.29 0.37 0.37 0.46 0.34 0.35 0.58 1.29 1.70 1.50 1.58 1.39 1.18 1.32 1.24 1.26 1.75
0.88 0.59 0.66 0.26 0.08 0.05 0.07 0.07 0.10 0.04 0.05 0.08 0.04 0.06 0.12 0.17 0.13 0.11 0.14 0.27 0.37 0.39 0.34 0.23 0.34 0.49 0.46 0.46 0.37 0.40 0.26 0.10 0.14 0.47 1.23 1.41 1.05 0.97 1.20 1.62 1.55 1.29 1.33
1.21 1.01 0.81 0.69 0.22 0.15 0.33 0.12 0.05 0.05 0.04 0.03 0.03 0.04 0.17 0.21 0.21 0.27 0.46 0.45 0.63 0.62 0.46 0.34 0.54 0.78 0.80 0.61 0.43 0.46 0.24 0.10 0.13 0.21 0.53 0.78 1.10 1.29 0.94 1.09 1.32 1.25 1.34
0.96 1.23 0.92 1.07 1.12 0.53 0.43 0.23 0.17 0.10 0.05 0.03 0.12 0.14 0.33 0.25 0.37 0.88 1.15 1.05 0.89 0.84 0.58 0.49 0.52 1.36 1.05 0.85 0.52 0.31 0.21 0.18 0.24 0.20 0.27 0.58 1.10 1.37 0.82 0.68 0.84 1.07 1.31
0.94 0.60 0.96 1.12 1.00 0.80 0.47 0.28 0.43 0.48 0.34 0.08 0.08 0.28 0.45 0.67 1.42 2.37 2.62 1.60 1.70 1.62 1.16 0.90 0.69 1.01 1.19 0.84 0.49 0.32 0.25 0.17 0.23 0.42 0.53 0.62 0.75 1.27 0.90 0.71 0.94 1.08 1.11
1.21 1.42 2.08 1.85 1.56 0.87 0.63 0.82 1.08 1.07 0.82 0.56 0.49 0.71 1.00 1.52 2.45 2.41 1.57 1.38 1.80 3.02 1.63 1.18 0.68 0.39 0.30 0.59 0.62 0.66 0.39 0.23 0.55 0.92 0.89 0.65 0.58 0.93 0.70 0.51 0.66 0.94 0.67
2.60 2.47 3.19 4.34 3.84 2.91 1.91 1.42 1.43 1.65 1.34 1.37 1.77 1.83 1.87 1.84 2.50 1.41 0.69 1.06 2.45 2.34 1.07 0.94 0.57 0.32 0.45 0.22 0.27 0.42 0.39 0.33 0.53 0.95 0.95 1.07 1.31 1.46 0.58 0.64 0.66 0.60 0.59
6.23 5.29 5.62 6.71 5.83 4.59 3.53 2.32 2.32 2.14 1.88 1.91 1.67 2.14 2.46 1.35 1.12 0.77 0.42 0.44 0.64 0.56 0.57 0.47 0.22 0.27 0.43 0.28 0.23 0.26 0.38 0.42 0.96 2.03 2.03 1.12 1.17 1.26 0.72 0.86 0.78 0.57 0.46
4.44 5.86 6.90 7.55 8.35 7.50 4.24 3.28 3.30 3.37 2.92 2.39 2.16 1.95 2.16 1.62 1.25 0.97 0.45 0.32 0.26 0.17 0.30 0.37 0.28 0.36 0.41 0.43 0.47 0.43 0.58 0.78 1.19 2.61 2.13 1.68 0.98 1.35 1.32 0.93 0.73 0.51 0.35
2.47 3.25 3.60 3.74 7.19 11.79 7.99 5.03 4.14 3.79 3.59 2.59 2.39 1.76 1.31 1.54 1.54 1.39 0.58 0.29 0.23 0.16 0.31 0.56 0.65 0.70 0.50 0.52 0.63 0.47 0.65 0.65 0.83 0.66 0.67 0.84 0.72 1.31 1.48 1.24 0.76 0.57 0.47
2.72 2.38 1.89 2.61 3.40 5.97 9.68 6.53 5.18 4.21 2.78 2.60 2.23 1.68 1.18 0.95 0.89 0.83 0.48 0.32 0.27 0.27 0.45 0.76 0.73 0.80 0.98 0.69 0.75 0.81 0.53 0.32 0.63 0.71 0.34 0.62 0.68 1.07 1.09 1.03 0.78 0.69 0.53
1.94 2.28 1.85 1.28 1.36 2.04 4.48 4.27 4.57 4.59 2.74 2.18 1.79 1.30 1.13 0.94 0.55 0.40 0.29 0.26 0.42 0.37 0.42 0.49 0.70 0.86 0.78 0.38 0.40 0.43 0.30 0.55 0.86 1.31 0.62 0.43 0.88 0.95 0.95 0.98 0.78 0.72 0.74
1.33 1.65 1.27 1.16 0.94 1.14 2.23 1.95 2.41 3.15 3.40 2.31 1.98 1.24 1.23 0.86 0.54 0.50 0.31 0.32 0.64 0.42 0.18 0.23 0.38 0.47 0.44 0.41 0.29 0.25 0.29 0.64 0.53 1.36 0.97 0.55 1.15 1.17 1.18 0.87 1.05 1.18 1.05
0.71 0.90 0.92 0.52 0.66 1.01 1.01 1.24 1.52 1.52 3.14 2.89 2.20 1.66 1.35 0.88 0.41 0.33 0.24 0.24 0.23 0.40 0.20 0.14 0.19 0.26 0.37 0.48 0.49 0.36 0.36 0.57 0.47 0.73 0.72 0.50 0.87 1.24 1.05 0.89 0.91 0.99 1.16
0.73 0.83 0.81 0.67 0.64 0.58 0.40 0.53 1.23 1.01 1.79 2.85 2.29 1.81 1.33 0.82 0.39 0.20 0.20 0.23 0.16 0.25 0.33 0.30 0.23 0.30 0.39 0.52 0.56 0.40 0.56 0.67 0.66 0.68 0.58 0.26 0.48 1.04 0.91 0.64 0.78 0.92 0.92
0.72 0.90 0.68 0.64 0.65 0.53 0.38 0.39 0.87 0.88 1.01 2.13 1.76 1.28 1.46 0.86 0.48 0.34 0.31 0.18 0.22 0.23 0.25 0.44 0.41 0.36 0.37 0.38 0.57 0.61 0.66 0.71 0.73 0.90 0.87 0.64 0.46 0.46 0.97 1.10 0.69 0.83 1.02
0.53 0.61 0.51 0.71 0.78 0.71 0.49 0.55 0.74 0.84 0.90 1.40 1.16 1.16 1.44 0.87 0.66 0.49 0.39 0.27 0.18 0.20 0.19 0.22 0.36 0.63 0.70 0.55 0.48 0.70 0.84 0.56 0.52 0.54 0.51 0.40 0.35 0.35 0.52 1.02 1.40 1.01 0.72
0.23 0.52 0.77 0.95 1.27 1.19 0.49 0.59 0.68 0.74 0.82 1.12 0.95 1.04 1.44 0.85 0.61 0.53 0.44 0.33 0.26 0.18 0.16 0.12 0.13 0.32 0.52 0.46 0.35 0.43 0.50 0.47 0.38 0.31 0.32 0.25 0.23 0.20 0.30 0.43 0.74 1.65 1.42
0.21 0.38 0.67 1.00 1.17 1.40 1.28 1.58 1.30 0.93 0.78 0.86 0.79 0.92 1.52 1.05 0.82 0.49 0.34 0.35 0.29 0.19 0.13 0.12 0.13 0.11 0.22 0.29 0.35 0.37 0.36 0.39 0.47 0.49 0.32 0.29 0.24 0.24 0.36 0.59 0.71 0.87 1.06
0.09 0.38 0.79 1.20 1.72 2.90 2.09 1.22 0.73 0.71 0.74 0.74 0.85 0.90 1.45 0.96 0.91 0.95 0.56 0.49 0.42 0.25 0.15 0.14 0.12 0.17 0.12 0.16 0.33 0.41 0.31 0.28 0.39 0.60 0.69 0.54 0.35 0.32 0.28 0.60 0.71 0.56 0.65
0.16 0.53 0.85 0.92 1.05 0.95 0.50 0.42 0.42 0.58 0.78 0.89 0.96 0.80 1.45 1.20 0.79 1.03 1.14 0.66 0.57 0.37 0.27 0.19 0.22 0.19 0.19 0.20 0.46 0.39 0.31 0.27 0.30 0.27 0.43 0.45 0.45 0.40 0.39 0.44 0.76 0.54 0.46
0.33 0.38 0.26 0.15 0.11 0.17 0.19 0.23 0.23 0.29 0.47 0.56 1.17 0.89 1.10 1.29 0.69 0.67 0.98 1.02 0.93 0.63 0.59 0.54 0.41 0.28 0.23 0.30 0.37 0.29 0.30 0.20 0.16 0.21 0.22 0.23 0.26 0.44 0.46 0.55 0.62 0.54 0.57
0.04 0.10 0.08 0.08 0.09 0.11 0.14 0.15 0.22 0.22 0.34 0.56 1.22 1.29 0.93 1.29 0.92 0.60 0.78 0.89 0.92 0.76 0.64 0.52 0.56 0.46 0.33 0.30 0.41 0.39 0.33 0.22 0.15 0.09 0.14 0.21 0.20 0.20 0.24 0.42 0.52 0.51 0.62
0.07 0.03 0.09 0.13 0.08 0.08 0.10 0.10 0.12 0.14 0.17 0.31 0.69 1.00 1.07 1.09 0.98 0.73 0.71 0.77 0.86 0.65 0.54 0.40 0.39 0.42 0.48 0.37 0.42 0.42 0.26 0.25 0.35 0.29 0.17 0.24 0.30 0.23 0.23 0.35 0.37 0.38 0.55
0.04 0.09 0.16 0.16 0.17 0.19 0.15 0.16 0.19 0.17 0.25 0.27 0.49 1.02 1.13 1.20 1.37 1.14 1.01 1.11 0.94 0.91 0.66 0.57 0.53 0.57 0.52 0.44 0.31 0.35 0.33 0.22 0.15 0.24 0.24 0.20 0.31 0.24 0.24 0.27 0.36 0.45 0.56
0.07 0.14 0.24 0.23 0.27 0.30 0.30 0.26 0.31 0.35 0.28 0.27 0.40 0.94 1.20 1.25 1.20 1.28 1.75 1.79 1.57 1.38 1.40 1.08 0.88 0.74 0.60 0.57 0.56 0.51 0.48 0.50 0.40 0.47 0.46 0.29 0.29 0.29 0.30 0.27 0.21 0.23 0.36

GFSSE_prec_precacc_234.txt.gz
Total_Precipitation_Accumulation
0.40 0.30 0.26 0.09 0.09 0.07 0.08 0.04 0.02 0.03 0.03 0.04 0.04 0.05 0.11 0.14 0.11 0.10 0.11 0.12 0.16 0.17 0.14 0.11 0.19 0.27 0.29 0.37 0.37 0.46 0.34 0.35 0.58 1.29 1.70 1.50 1.58 1.39 1.18 1.32 1.24 1.26 1.75
0.88 0.59 0.66 0.26 0.08 0.05 0.07 0.07 0.10 0.04 0.05 0.08 0.04 0.06 0.12 0.17 0.13 0.11 0.14 0.27 0.37 0.39 0.34 0.23 0.34 0.49 0.46 0.46 0.37 0.40 0.26 0.10 0.14 0.47 1.23 1.41 1.05 0.97 1.20 1.62 1.55 1.29 1.33
1.21 1.01 0.81 0.69 0.22 0.15 0.33 0.12 0.05 0.05 0.04 0.03 0.03 0.04 0.17 0.21 0.21 0.27 0.46 0.45 0.63 0.62 0.46 0.34 0.54 0.78 0.80 0.61 0.43 0.46 0.24 0.10 0.13 0.21 0.53 0.78 1.10 1.29 0.94 1.09 1.32 1.25 1.34
0.96 1.23 0.92 1.07 1.12 0.53 0.43 0.23 0.17 0.10 0.05 0.03 0.12 0.14 0.33 0.25 0.37 0.88 1.15 1.05 0.89 0.84 0.58 0.49 0.52 1.36 1.05 0.85 0.52 0.31 0.21 0.18 0.24 0.20 0.27 0.58 1.10 1.37 0.82 0.68 0.84 1.07 1.31
0.94 0.60 0.96 1.12 1.00 0.80 0.47 0.28 0.43 0.48 0.34 0.08 0.08 0.28 0.45 0.67 1.42 2.37 2.62 1.60 1.70 1.62 1.16 0.90 0.69 1.01 1.19 0.84 0.49 0.32 0.25 0.17 0.23 0.42 0.53 0.62 0.75 1.27 0.90 0.71 0.94 1.08 1.11
1.21 1.42 2.08 1.85 1.56 0.87 0.63 0.82 1.08 1.07 0.82 0.56 0.49 0.71 1.00 1.52 2.45 2.41 1.57 1.38 1.80 3.02 1.63 1.18 0.68 0.39 0.30 0.59 0.62 0.66 0.39 0.23 0.55 0.92 0.89 0.65 0.58 0.93 0.70 0.51 0.66 0.94 0.67
2.60 2.47 3.19 4.34 3.84 2.91 1.91 1.42 1.43 1.65 1.34 1.37 1.77 1.83 1.87 1.84 2.50 1.41 0.69 1.06 2.45 2.34 1.07 0.94 0.57 0.32 0.45 0.22 0.27 0.42 0.39 0.33 0.53 0.95 0.95 1.08 1.33 1.46 0.58 0.64 0.66 0.60 0.59
6.23 5.29 5.62 6.71 5.83 4.59 3.53 2.32 2.32 2.14 1.88 1.91 1.67 2.14 2.46 1.35 1.12 0.77 0.42 0.44 0.64 0.56 0.57 0.47 0.22 0.27 0.43 0.28 0.23 0.26 0.38 0.42 0.96 2.03 2.03 1.13 1.19 1.26 0.72 0.86 0.78 0.57 0.46
4.44 5.86 6.90 7.55 8.35 7.50 4.24 3.28 3.30 3.37 2.92 2.39 2.16 1.95 2.16 1.62 1.25 0.97 0.45 0.32 0.26 0.17 0.30 0.37 0.28 0.36 0.41 0.43 0.47 0.43 0.58 0.78 1.19 2.61 2.13 1.68 0.99 1.35 1.32 0.93 0.73 0.51 0.35
2.47 3.25 3.60 3.74 7.19 11.79 7.99 5.03 4.14 3.79 3.59 2.59 2.39 1.76 1.31 1.54 1.54 1.39 0.58 0.29 0.23 0.16 0.31 0.56 0.65 0.70 0.50 0.52 0.63 0.47 0.65 0.65 0.83 0.66 0.67 0.84 0.72 1.31 1.48 1.24 0.76 0.57 0.47
2.72 2.38 1.89 2.61 3.40 5.97 9.68 6.53 5.18 4.21 2.78 2.60 2.23 1.68 1.18 0.95 0.89 0.83 0.48 0.32 0.27 0.27 0.45 0.76 0.73 0.80 0.98 0.69 0.75 0.81 0.53 0.32 0.63 0.71 0.34 0.62 0.68 1.07 1.09 1.03 0.78 0.69 0.53
1.94 2.28 1.85 1.28 1.36 2.04 4.48 4.27 4.57 4.59 2.74 2.18 1.79 1.30 1.13 0.94 0.55 0.40 0.29 0.26 0.42 0.37 0.42 0.49 0.70 0.86 0.78 0.38 0.40 0.43 0.30 0.55 0.86 1.31 0.62 0.43 0.88 0.96 0.95 0.98 0.78 0.72 0.74
1.33 1.65 1.27 1.16 0.94 1.14 2.23 1.95 2.41 3.15 3.40 2.31 1.98 1.24 1.23 0.86 0.54 0.50 0.31 0.32 0.64 0.42 0.18 0.23 0.38 0.47 0.44 0.41 0.29 0.25 0.29 0.64 0.53 1.36 0.97 0.55 1.15 1.17 1.19 0.88 1.05 1.18 1.05
0.71 0.90 0.92 0.52 0.66 1.01 1.01 1.24 1.52 1.52 3.14 2.89 2.20 1.67 1.35 0.88 0.41 0.33 0.24 0.24 0.23 0.40 0.20 0.14 0.19 0.26 0.37 0.48 0.49 0.36 0.36 0.57 0.47 0.73 0.72 0.50 0.87 1.24 1.05 0.89 0.91 0.99 1.16
0.73 0.83 0.81 0.67 0.64 0.58 0.40 0.53 1.23 1.02 1.79 2.85 2.29 1.81 1.33 0.82 0.39 0.20 0.20 0.23 0.16 0.25 0.33 0.30 0.23 0.30 0.39 0.52 0.56 0.40 0.56 0.67 0.66 0.68 0.58 0.26 0.48 1.04 0.91 0.64 0.78 0.92 0.92
0.72 0.90 0.68 0.64 0.65 0.53 0.38 0.39 0.87 0.88 1.01 2.13 1.76 1.28 1.46 0.86 0.48 0.34 0.31 0.18 0.22 0.23 0.25 0.44 0.41 0.36 0.37 0.38 0.57 0.61 0.66 0.71 0.73 0.90 0.87 0.64 0.46 0.46 0.97 1.10 0.69 0.83 1.02
0.53 0.61 0.51 0.71 0.78 0.71 0.49 0.55 0.74 0.84 0.90 1.40 1.16 1.16 1.44 0.87 0.66 0.49 0.39 0.27 0.18 0.20 0.19 0.22 0.36 0.64 0.71 0.55 0.50 0.71 0.84 0.56 0.52 0.54 0.51 0.40 0.35 0.35 0.52 1.02 1.40 1.01 0.72
0.23 0.52 0.77 0.95 1.27 1.19 0.49 0.59 0.68 0.74 0.82 1.12 0.95 1.04 1.44 0.85 0.61 0.53 0.44 0.33 0.26 0.18 0.16 0.13 0.15 0.36 0.54 0.48 0.40 0.47 0.50 0.47 0.38 0.31 0.32 0.25 0.23 0.20 0.30 0.43 0.74 1.65 1.42
0.21 0.38 0.67 1.00 1.17 1.40 1.28 1.58 1.30 0.93 0.78 0.86 0.79 0.92 1.52 1.05 0.82 0.49 0.34 0.35 0.29 0.19 0.13 0.12 0.14 0.12 0.22 0.29 0.36 0.38 0.37 0.39 0.47 0.49 0.32 0.29 0.24 0.24 0.36 0.59 0.71 0.87 1.06
0.09 0.38 0.79 1.20 1.72 2.90 2.09 1.22 0.73 0.71 0.74 0.74 0.85 0.90 1.45 0.96 0.91 0.95 0.56 0.49 0.42 0.25 0.15 0.14 0.13 0.18 0.12 0.17 0.33 0.41 0.31 0.28 0.39 0.60 0.69 0.54 0.35 0.32 0.28 0.60 0.71 0.56 0.65
0.16 0.53 0.85 0.92 1.05 0.95 0.50 0.42 0.42 0.58 0.78 0.89 0.96 0.80 1.45 1.20 0.79 1.03 1.14 0.66 0.57 0.37 0.27 0.19 0.22 0.21 0.25 0.22 0.46 0.39 0.31 0.27 0.30 0.27 0.43 0.45 0.45 0.40 0.39 0.44 0.76 0.54 0.46
0.33 0.38 0.26 0.15 0.11 0.17 0.19 0.23 0.23 0.29 0.47 0.56 1.17 0.89 1.10 1.29 0.69 0.67 0.98 1.02 0.93 0.63 0.60 0.54 0.41 0.29 0.23 0.31 0.38 0.29 0.30 0.20 0.16 0.21 0.22 0.23 0.26 0.44 0.46 0.55 0.62 0.54 0.57
0.04 0.10 0.08 0.08 0.09 0.11 0.14 0.16 0.23 0.23 0.34 0.56 1.22 1.29 0.93 1.29 0.92 0.60 0.78 0.89 0.92 0.77 0.64 0.52 0.57 0.47 0.33 0.30 0.41 0.39 0.34 0.22 0.15 0.09 0.14 0.21 0.20 0.20 0.24 0.42 0.52 0.51 0.62
0.07 0.03 0.09 0.13 0.08 0.08 0.10 0.11 0.13 0.14 0.18 0.32 0.69 1.01 1.09 1.10 0.98 0.74 0.72 0.78 0.86 0.66 0.55 0.40 0.40 0.43 0.49 0.37 0.42 0.42 0.27 0.26 0.36 0.29 0.17 0.24 0.30 0.23 0.23 0.35 0.37 0.38 0.55
0.04 0.09 0.16 0.16 0.17 0.19 0.15 0.16 0.20 0.20 0.25 0.28 0.50 1.03 1.14 1.21 1.38 1.15 1.02 1.11 0.94 0.93 0.68 0.59 0.54 0.57 0.52 0.45 0.31 0.35 0.33 0.22 0.15 0.24 0.24 0.20 0.31 0.24 0.24 0.27 0.36 0.45 0.56
0.07 0.14 0.24 0.23 0.27 0.30 0.30 0.26 0.31 0.37 0.28 0.28 0.41 0.96 1.28 1.27 1.26 1.33 1.75 1.79 1.57 1.38 1.40 1.08 0.88 0.74 0.60 0.57 0.56 0.51 0.48 0.50 0.40 0.47 0.46 0.29 0.29 0.29 0.30 0.27 0.21 0.23 0.36

GFSSE_prec_precacc_237.txt.gz
Total_Precipitation_Accumulation
0.40 0.30 0.26 0.09 0.09 0.07 0.08 0.04 0.02 0.03 0.03 0.04 0.04 0.05 0.11 0.14 0.11 0.10 0.11 0.12 0.16 0.17 0.14 0.11 0.19 0.27 0.29 0.37 0.37 0.46 0.34 0.35 0.58 1.29 1.70 1.50 1.58 1.39 1.18 1.32 1.24 1.26 1.75
0.88 0.59 0.66 0.26 0.08 0.05 0.07 0.07 0.10 0.04 0.05 0.08 0.04 0.06 0.12 0.17 0.13 0.11 0.14 0.27 0.37 0.39 0.34 0.23 0.34 0.49 0.46 0.46 0.37 0.40 0.26 0.10 0.14 0.47 1.23 1.41 1.05 0.97 1.20 1.62 1.55 1.29 1.33
1.21 1.01 0.81 0.69 0.22 0.15 0.33 0.12 0.05 0.05 0.04 0.03 0.03 0.04 0.17 0.21 0.21 0.27 0.46 0.45 0.63 0.62 0.46 0.34 0.54 0.78 0.80 0.61 0.43 0.46 0.24 0.10 0.13 0.21 0.53 0.78 1.10 1.29 0.94 1.09 1.32 1.25 1.34
0.96 1.23 0.92 1.07 1.12 0.53 0.43 0.23 0.17 0.10 0.05 0.03 0.12 0.14 0.33 0.25 0.37 0.88 1.15 1.05 0.89 0.84 0.58 0.49 0.52 1.36 1.05 0.85 0.52 0.31 0.21 0.18 0.24 0.20 0.27 0.58 1.10 1.37 0.82 0.68 0.84 1.07 1.31
0.94 0.60 0.96 1.12 1.00 0.80 0.47 0.28 0.43 0.48 0.34 0.08 0.08 0.28 0.45 0.67 1.42 2.37 2.62 1.60 1.70 1.62 1.16 0.90 0.69 1.01 1.19 0.84 0.49 0.32 0.25 0.17 0.23 0.42 0.53 0.63 0.75 1.27 0.90 0.71 0.94 1.08 1.11
1.21 1.42 2.08 1.85 1.56 0.87 0.63 0.82 1.08 1.07 0.82 0.56 0.49 0.71 1.00 1.52 2.45 2.41 1.57 1.38 1.80 3.02 1.63 1.18 0.68 0.39 0.30 0.59 0.62 0.66 0.39 0.23 0.55 0.92 0.89 0.65 0.59 0.93 0.70 0.51 0.66 0.94 0.67
2.60 2.47 3.19 4.34 3.84 2.91 1.91 1.42 1.43 1.65 1.34 1.37 1.77 1.83 1.87 1.84 2.50 1.41 0.69 1.06 2.45 2.34 1.07 0.94 0.57 0.32 0.45 0.22 0.27 0.42 0.39 0.33 0.53 0.95 0.95 1.09 1.34 1.46 0.58 0.64 0.66 0.60 0.59
6.23 5.29 5.62 6.71 5.83 4.59 3.53 2.32 2.32 2.14 1.88 1.91 1.67 2.14 2.46 1.35 1.12 0.77 0.42 0.44 0.64 0.56 0.57 0.47 0.22 0.27 0.43 0.28 0.23 0.26 0.38 0.42 0.96 2.03 2.03 1.13 1.20 1.26 0.72 0.86 0.78 0.57 0.46
4.44 5.86 6.90 7.55 8.35 7.50 4.24 3.28 3.30 3.37 2.92 2.39 2.16 1.95 2.16 1.62 1.25 0.97 0.45 0.32 0.26 0.17 0.30 0.37 0.28 0.36 0.41 0.43 0.47 0.43 0.58 0.78 1.19 2.61 2.13 1.68 0.99 1.35 1.32 0.93 0.73 0.51 0.35
2.47 3.25 3.60 3.74 7.19 11.79 7.99 5.03 4.14 3.79 3.59 2.59 2.39 1.76 1.31 1.54 1.54 1.39 0.58 0.29 0.23 0.16 0.31 0.56 0.65 0.70 0.50 0.52 0.63 0.47 0.65 0.65 0.83 0.66 0.67 0.84 0.72 1.31 1.48 1.24 0.76 0.57 0.47
2.72 2.38 1.89 2.61 3.40 5.97 9.68 6.53 5.18 4.21 2.78 2.60 2.23 1.68 1.18 0.95 0.89 0.83 0.48 0.32 0.27 0.27 0.45 0.76 0.73 0.80 0.98 0.69 0.75 0.81 0.53 0.32 0.63 0.71 0.34 0.62 0.68 1.07 1.09 1.03 0.78 0.69 0.53
1.94 2.28 1.85 1.28 1.36 2.04 4.48 4.27 4.57 4.59 2.74 2.18 1.79 1.30 1.13 0.94 0.55 0.40 0.29 0.26 0.42 0.37 0.42 0.49 0.70 0.86 0.78 0.38 0.40 0.43 0.30 0.55 0.86 1.31 0.62 0.43 0.88 0.96 0.95 0.98 0.78 0.72 0.74
1.33 1.65 1.27 1.16 0.94 1.14 2.23 1.95 2.41 3.15 3.40 2.31 1.98 1.24 1.23 0.86 0.54 0.50 0.31 0.32 0.64 0.42 0.18 0.23 0.38 0.47 0.44 0.41 0.29 0.25 0.29 0.64 0.53 1.36 0.97 0.55 1.15 1.17 1.19 0.88 1.05 1.18 1.05
0.71 0.90 0.92 0.52 0.66 1.01 1.01 1.24 1.52 1.52 3.14 2.89 2.20 1.67 1.35 0.88 0.41 0.33 0.24 0.24 0.23 0.40 0.20 0.14 0.19 0.26 0.37 0.48 0.49 0.36 0.36 0.57 0.47 0.73 0.72 0.50 0.87 1.24 1.05 0.89 0.91 0.99 1.16
0.73 0.83 0.81 0.67 0.64 0.58 0.40 0.53 1.23 1.02 1.79 2.85 2.29 1.81 1.33 0.82 0.39 0.20 0.20 0.23 0.16 0.25 0.33 0.30 0.23 0.30 0.39 0.52 0.56 0.40 0.56 0.67 0.66 0.68 0.58 0.26 0.48 1.04 0.91 0.64 0.78 0.92 0.92
0.72 0.90 0.68 0.64 0.65 0.53 0.38 0.39 0.87 0.88 1.01 2.13 1.76 1.28 1.46 0.86 0.48 0.34 0.31 0.18 0.22 0.23 0.25 0.44 0.41 0.36 0.37 0.38 0.57 0.61 0.66 0.71 0.73 0.90 0.87 0.64 0.46 0.46 0.97 1.10 0.69 0.83 1.02
0.53 0.61 0.51 0.71 0.78 0.71 0.49 0.55 0.74 0.84 0.90 1.40 1.16 1.16 1.44 0.87 0.66 0.49 0.39 0.27 0.18 0.20 0.19 0.22 0.36 0.64 0.71 0.56 0.51 0.72 0.84 0.56 0.52 0.54 0.51 0.40 0.35 0.35 0.52 1.02 1.40 1.01 0.72
0.23 0.52 0.77 0.95 1.27 1.19 0.49 0.59 0.68 0.74 0.82 1.12 0.95 1.04 1.44 0.85 0.61 0.53 0.44 0.33 0.26 0.18 0.16 0.13 0.15 0.39 0.60 0.51 0.44 0.48 0.51 0.47 0.38 0.31 0.32 0.25 0.23 0.20 0.30 0.43 0.74 1.65 1.42
0.21 0.38 0.67 1.00 1.17 1.40 1.28 1.58 1.30 0.93 0.78 0.86 0.79 0.92 1.52 1.05 0.82 0.49 0.34 0.35 0.29 0.19 0.13 0.13 0.14 0.16 0.25 0.30 0.36 0.38 0.37 0.40 0.47 0.49 0.32 0.29 0.24 0.24 0.36 0.59 0.71 0.87 1.06
0.09 0.38 0.79 1.20 1.72 2.90 2.09 1.22 0.73 0.71 0.74 0.74 0.85 0.90 1.45 0.96 0.91 0.95 0.56 0.49 0.42 0.25 0.15 0.14 0.13 0.18 0.13 0.17 0.34 0.41 0.31 0.28 0.39 0.60 0.69 0.54 0.35 0.32 0.28 0.60 0.71 0.56 0.65
0.16 0.53 0.85 0.92 1.05 0.95 0.50 0.42 0.42 0.58 0.78 0.89 0.96 0.80 1.45 1.20 0.79 1.03 1.14 0.66 0.57 0.37 0.27 0.20 0.25 0.27 0.36 0.29 0.49 0.41 0.32 0.27 0.30 0.27 0.43 0.45 0.45 0.40 0.39 0.44 0.76 0.54 0.46
0.33 0.38 0.26 0.15 0.11 0.17 0.19 0.23 0.23 0.29 0.47 0.56 1.17 0.89 1.10 1.29 0.69 0.67 0.98 1.02 0.94 0.66 0.66 0.62 0.49 0.36 0.30 0.37 0.41 0.32 0.31 0.20 0.16 0.21 0.22 0.23 0.26 0.44 0.46 0.55 0.62 0.54 0.57
0.04 0.10 0.08 0.08 0.09 0.11 0.14 0.16 0.23 0.23 0.34 0.56 1.22 1.29 0.93 1.29 0.92 0.60 0.78 0.89 0.94 0.81 0.71 0.55 0.58 0.50 0.39 0.31 0.41 0.41 0.34 0.22 0.15 0.09 0.14 0.21 0.20 0.20 0.24 0.42 0.52 0.51 0.62
0.07 0.03 0.09 0.13 0.08 0.08 0.10 0.11 0.13 0.14 0.18 0.32 0.69 1.01 1.09 1.10 0.98 0.74 0.72 0.78 0.87 0.67 0.57 0.42 0.41 0.45 0.50 0.38 0.43 0.43 0.27 0.26 0.36 0.29 0.17 0.24 0.30 0.23 0.23 0.35 0.37 0.38 0.55
0.04 0.09 0.16 0.16 0.17 0.19 0.15 0.16 0.20 0.20 0.25 0.28 0.50 1.03 1.15 1.21 1.38 1.15 1.02 1.12 0.95 0.93 0.68 0.59 0.55 0.59 0.53 0.45 0.31 0.36 0.33 0.22 0.15 0.24 0.24 0.20 0.31 0.24 0.24 0.27 0.36 0.45 0.56
0.07 0.14 0.24 0.23 0.27 0.30 0.30 0.26 0.31 0.37 0.28 0.28 0.41 0.97 1.28 1.27 1.26 1.41 1.78 1.80 1.59 1.41 1.40 1.09 0.88 0.74 0.61 0.57 0.56 0.51 0.48 0.50 0.40 0.47 0.46 0.29 0.29 0.29 0.30 0.27 0.21 0.23 0.36

GFSSE_prec_precacc_240.txt.gz
Total_Precipitation_Accumulation
0.40 0.30 0.26 0.09 0.09 0.07 0.08 0.04 0.02 0.03 0.03 0.04 0.04 0.05 0.11 0.14 0.11 0.10 0.11 0.12 0.16 0.17 0.14 0.11 0.19 0.27 0.29 0.37 0.37 0.46 0.34 0.35 0.58 1.29 1.70 1.50 1.58 1.39 1.18 1.32 1.24 1.26 1.75
0.88 0.59 0.66 0.26 0.08 0.05 0.07 0.07 0.10 0.04 0.05 0.08 0.04 0.06 0.12 0.17 0.13 0.11 0.14 0.27 0.37 0.39 0.34 0.23 0.34 0.49 0.46 0.46 0.37 0.40 0.26 0.10 0.14 0.47 1.23 1.41 1.05 0.97 1.20 1.62 1.55 1.29 1.34
1.21 1.01 0.81 0.69 0.22 0.15 0.33 0.12 0.05 0.05 0.04 0.03 0.03 0.04 0.17 0.21 0.21 0.27 0.46 0.45 0.63 0.62 0.46 0.34 0.54 0.78 0.80 0.61 0.43 0.46 0.24 0.10 0.13 0.21 0.53 0.78 1.10 1.29 0.94 1.09 1.32 1.25 1.34
0.96 1.23 0.92 1.07 1.12 0.53 0.43 0.23 0.17 0.10 0.05 0.03 0.12 0.14 0.33 0.25 0.37 0.88 1.15 1.05 0.89 0.84 0.58 0.49 0.52 1.36 1.05 0.85 0.52 0.31 0.21 0.18 0.24 0.20 0.27 0.58 1.10 1.37 0.82 0.68 0.84 1.07 1.31
0.94 0.60 0.96 1.12 1.00 0.80 0.47 0.28 0.43 0.48 0.34 0.08 0.08 0.28 0.45 0.67 1.42 2.37 2.62 1.60 1.70 1.62 1.16 0.90 0.69 1.01 1.19 0.84 0.49 0.32 0.25 0.17 0.23 0.42 0.54 0.63 0.75 1.27 0.90 0.71 0.94 1.08 1.11
1.21 1.42 2.08 1.85 1.56 0.87 0.63 0.82 1.08 1.07 0.82 0.56 0.49 0.71 1.00 1.52 2.45 2.41 1.57 1.38 1.80 3.02 1.63 1.18 0.68 0.39 0.30 0.59 0.62 0.66 0.39 0.23 0.55 0.92 0.89 0.65 0.59 0.93 0.70 0.51 0.66 0.94 0.67
2.60 2.47 3.19 4.34 3.84 2.91 1.91 1.42 1.43 1.65 1.34 1.37 1.77 1.83 1.87 1.84 2.50 1.41 0.69 1.06 2.45 2.34 1.07 0.94 0.57 0.32 0.45 0.22 0.27 0.42 0.39 0.33 0.53 0.95 0.95 1.09 1.34 1.46 0.58 0.64 0.66 0.60 0.59
6.23 5.29 5.62 6.71 5.83 4.59 3.53 2.32 2.32 2.14 1.88 1.91 1.67 2.14 2.46 1.35 1.12 0.77 0.42 0.44 0.64 0.56 0.57 0.47 0.22 0.27 0.43 0.28 0.23 0.26 0.38 0.42 0.96 2.03 2.03 1.13 1.20 1.26 0.72 0.86 0.78 0.57 0.46
4.44 5.86 6.90 7.55 8.35 7.50 4.24 3.28 3.30 3.37 2.92 2.39 2.16 1.95 2.16 1.62 1.25 0.97 0.45 0.32 0.26 0.17 0.30 0.37 0.28 0.36 0.41 0.43 0.47 0.43 0.58 0.78 1.19 2.61 2.13 1.68 0.99 1.35 1.32 0.93 0.73 0.51 0.35
2.47 3.25 3.60 3.74 7.19 11.79 7.99 5.03 4.14 3.79 3.59 2.59 2.39 1.76 1.31 1.54 1.54 1.39 0.58 0.29 0.23 0.16 0.31 0.56 0.65 0.70 0.50 0.52 0.63 0.47 0.65 0.65 0.83 0.66 0.67 0.84 0.72 1.31 1.48 1.24 0.76 0.57 0.47
2.72 2.38 1.89 2.61 3.40 5.97 9.68 6.53 5.18 4.21 2.78 2.60 2.23 1.68 1.18 0.95 0.89 0.83 0.48 0.32 0.27 0.27 0.45 0.76 0.73 0.80 0.98 0.69 0.75 0.81 0.53 0.32 0.63 0.71 0.34 0.62 0.68 1.07 1.09 1.03 0.78 0.69 0.53
1.94 2.28 1.85 1.28 1.36 2.04 4.48 4.27 4.57 4.59 2.74 2.18 1.79 1.30 1.13 0.94 0.55 0.40 0.29 0.26 0.42 0.37 0.42 0.49 0.70 0.86 0.78 0.38 0.40 0.43 0.30 0.55 0.86 1.31 0.62 0.43 0.88 0.96 0.95 0.98 0.78 0.72 0.74
1.33 1.65 1.27 1.16 0.94 1.14 2.23 1.95 2.41 3.15 3.40 2.31 1.98 1.24 1.23 0.86 0.54 0.50 0.31 0.32 0.64 0.42 0.18 0.23 0.38 0.47 0.44 0.41 0.29 0.25 0.29 0.64 0.53 1.36 0.97 0.55 1.15 1.17 1.19 0.88 1.05 1.18 1.05
0.71 0.90 0.92 0.52 0.66 1.01 1.01 1.24 1.52 1.52 3.14 2.89 2.20 1.67 1.35 0.88 0.41 0.33 0.24 0.24 0.23 0.40 0.20 0.14 0.19 0.26 0.37 0.48 0.49 0.36 0.36 0.57 0.47 0.73 0.72 0.50 0.87 1.24 1.05 0.89 0.91 0.99 1.16
0.73 0.83 0.81 0.67 0.64 0.58 0.40 0.53 1.23 1.02 1.79 2.85 2.29 1.81 1.33 0.82 0.39 0.20 0.20 0.23 0.16 0.25 0.33 0.30 0.23 0.30 0.39 0.52 0.56 0.40 0.56 0.67 0.66 0.68 0.58 0.26 0.48 1.04 0.91 0.64 0.78 0.92 0.92
0.72 0.90 0.68 0.64 0.65 0.53 0.38 0.39 0.87 0.88 1.01 2.13 1.76 1.28 1.46 0.86 0.48 0.34 0.31 0.18 0.22 0.23 0.25 0.44 0.41 0.36 0.37 0.38 0.58 0.61 0.66 0.71 0.73 0.90 0.87 0.64 0.46 0.46 0.97 1.10 0.69 0.83 1.02
0.53 0.61 0.51 0.71 0.78 0.71 0.49 0.55 0.74 0.84 0.90 1.40 1.16 1.16 1.44 0.87 0.66 0.49 0.39 0.27 0.18 0.20 0.19 0.22 0.36 0.64 0.72 0.56 0.51 0.72 0.84 0.56 0.52 0.54 0.51 0.40 0.35 0.35 0.52 1.02 1.40 1.01 0.72
0.23 0.52 0.77 0.95 1.27 1.19 0.49 0.59 0.68 0.74 0.82 1.12 0.95 1.04 1.44 0.85 0.61 0.53 0.44 0.33 0.26 0.18 0.16 0.13 0.15 0.39 0.60 0.54 0.45 0.49 0.51 0.47 0.38 0.31 0.32 0.25 0.23 0.20 0.30 0.43 0.74 1.65 1.42
0.21 0.38 0.67 1.00 1.17 1.40 1.28 1.58 1.30 0.93 0.78 0.86 0.79 0.92 1.52 1.05 0.82 0.49 0.34 0.35 0.29 0.19 0.13 0.13 0.14 0.16 0.31 0.34 0.36 0.38 0.38 0.40 0.47 0.49 0.32 0.29 0.24 0.24 0.36 0.59 0.71 0.87 1.06
0.09 0.38 0.79 1.20 1.72 2.90 2.09 1.22 0.73 0.71 0.74 0.74 0.85 0.90 1.45 0.96 0.91 0.95 0.56 0.49 0.42 0.25 0.15 0.14 0.13 0.19 0.13 0.19 0.34 0.41 0.31 0.28 0.39 0.60 0.69 0.54 0.35 0.32 0.28 0.60 0.71 0.56 0.65
0.16 0.53 0.85 0.92 1.05 0.95 0.50 0.42 0.42 0.58 0.78 0.89 0.96 0.80 1.45 1.20 0.79 1.03 1.14 0.66 0.57 0.37 0.27 0.20 0.25 0.29 0.38 0.35 0.60 0.48 0.35 0.27 0.30 0.28 0.43 0.45 0.45 0.40 0.39 0.44 0.76 0.54 0.46
0.33 0.38 0.26 0.15 0.11 0.17 0.19 0.23 0.23 0.29 0.47 0.56 1.17 0.89 1.10 1.29 0.69 0.67 0.98 1.02 0.94 0.66 0.67 0.64 0.53 0.43 0.37 0.47 0.49 0.41 0.36 0.23 0.19 0.23 0.22 0.23 0.26 0.44 0.46 0.55 0.62 0.54 0.57
0.04 0.10 0.08 0.08 0.09 0.11 0.14 0.16 0.23 0.23 0.34 0.56 1.22 1.29 0.93 1.29 0.92 0.60 0.78 0.89 0.94 0.81 0.73 0.60 0.63 0.59 0.52 0.36 0.45 0.46 0.39 0.25 0.16 0.09 0.14 0.21 0.20 0.20 0.24 0.42 0.52 0.51 0.62
0.07 0.03 0.09 0.13 0.08 0.08 0.10 0.11 0.13 0.14 0.18 0.32 0.69 1.01 1.09 1.10 0.98 0.74 0.72 0.78 0.89 0.70 0.61 0.47 0.48 0.56 0.61 0.40 0.44 0.43 0.28 0.26 0.36 0.29 0.17 0.24 0.30 0.23 0.23 0.35 0.37 0.38 0.55
0.04 0.09 0.16 0.16 0.17 0.19 0.15 0.16 0.20 0.20 0.25 0.28 0.50 1.03 1.15 1.21 1.38 1.15 1.02 1.12 0.97 0.96 0.71 0.64 0.58 0.64 0.59 0.48 0.32 0.36 0.33 0.22 0.15 0.24 0.24 0.20 0.31 0.24 0.24 0.27 0.36 0.45 0.56
0.07 0.14 0.24 0.23 0.27 0.30 0.30 0.26 0.31 0.37 0.28 0.28 0.41 0.97 1.28 1.27 1.27 1.42 1.79 1.80 1.59 1.41 1.41 1.10 0.93 0.77 0.61 0.58 0.56 0.51 0.48 0.50 0.40 0.47 0.46 0.29 0.29 0.29 0.30 0.27 0.21 0.23 0.36

GFSSE_prec_precacc_243.txt.gz
Total_Precipitation_Accumulation
0.40 0.30 0.26 0.09 0.09 0.07 0.08 0.04 0.02 0.03 0.03 0.04 0.04 0.05 0.11 0.14 0.11 0.10 0.11 0.12 0.16 0.17 0.14 0.11 0.19 0.27 0.29 0.37 0.37 0.46 0.34 0.35 0.58 1.29 1.70 1.50 1.58 1.39 1.18 1.32 1.24 1.26 1.75
0.88 0.59 0.66 0.26 0.08 0.05 0.07 0.07 0.10 0.04 0.05 0.08 0.04 0.06 0.12 0.17 0.13 0.11 0.14 0.27 0.37 0.39 0.34 0.23 0.34 0.49 0.46 0.46 0.37 0.40 0.26 0.10 0.14 0.47 1.23 1.41 1.05 0.97 1.20 1.62 1.55 1.29 1.34
1.21 1.01 0.81 0.69 0.22 0.15 0.33 0.12 0.05 0.05 0.04 0.03 0.03 0.04 0.17 0.21 0.21 0.27 0.46 0.45 0.63 0.62 0.46 0.34 0.54 0.78 0.80 0.61 0.43 0.46 0.24 0.10 0.13 0.21 0.53 0.78 1.10 1.29 0.94 1.09 1.32 1.25 1.34
0.96 1.23 0.92 1.07 1.12 0.53 0.43 0.23 0.17 0.10 0.05 0.03 0.12 0.14 0.33 0.25 0.37 0.88 1.15 1.05 0.89 0.84 0.58 0.49 0.52 1.36 1.05 0.85 0.52 0.31 0.21 0.18 0.24 0.20 0.27 0.58 1.10 1.37 0.82 0.68 0.84 1.07 1.31
0.94 0.60 0.96 1.12 1.00 0.80 0.47 0.28 0.43 0.48 0.34 0.08 0.08 0.28 0.45 0.67 1.42 2.37 2.62 1.60 1.70 1.62 1.16 0.90 0.69 1.01 1.19 0.84 0.49 0.32 0.25 0.17 0.23 0.42 0.54 0.63 0.75 1.27 0.90 0.71 0.94 1.08 1.11
1.21 1.42 2.08 1.85 1.56 0.87 0.63 0.82 1.08 1.07 0.82 0.56 0.49 0.71 1.00 1.52 2.45 2.41 1.57 1.38 1.80 3.02 1.63 1.18 0.68 0.39 0.30 0.59 0.62 0.66 0.39 0.23 0.55 0.92 0.89 0.65 0.59 0.93 0.70 0.51 0.66 0.94 0.67
2.60 2.47 3.19 4.34 3.84 2.91 1.91 1.42 1.43 1.65 1.34 1.37 1.77 1.83 1.87 1.84 2.50 1.41 0.69 1.06 2.45 2.34 1.07 0.94 0.57 0.32 0.45 0.22 0.27 0.42 0.39 0.33 0.53 0.95 0.95 1.09 1.34 1.46 0.58 0.64 0.66 0.60 0.59
6.23 5.29 5.62 6.71 5.83 4.59 3.53 2.32 2.32 2.14 1.88 1.91 1.67 2.14 2.46 1.35 1.12 0.77 0.42 0.44 0.64 0.56 0.57 0.47 0.22 0.27 0.43 0.28 0.23 0.26 0.38 0.42 0.96 2.03 2.03 1.13 1.20 1.26 0.72 0.86 0.78 0.57 0.46
4.44 5.86 6.90 7.55 8.35 7.50 4.24 3.28 3.30 3.37 2.92 2.39 2.16 1.95 2.16 1.62 1.25 0.97 0.45 0.32 0.26 0.17 0.30 0.37 0.28 0.36 0.41 0.43 0.47 0.43 0.58 0.78 1.19 2.61 2.13 1.68 0.99 1.35 1.32 0.93 0.73 0.51 0.35
2.47 3.25 3.60 3.74 7.19 11.79 7.99 5.03 4.14 3.79 3.59 2.59 2.39 1.76 1.31 1.54 1.54 1.39 0.58 0.29 0.23 0.16 0.31 0.56 0.65 0.70 0.50 0.52 0.63 0.47 0.65 0.65 0.83 0.66 0.67 0.84 0.72 1.31 1.48 1.24 0.76 0.57 0.47
2.72 2.38 1.89 2.61 3.40 5.97 9.68 6.53 5.18 4.21 2.78 2.60 2.23 1.68 1.18 0.95 0.89 0.83 0.48 0.32 0.27 0.27 0.45 0.76 0.73 0.80 0.98 0.69 0.75 0.81 0.53 0.32 0.63 0.71 0.34 0.62 0.68 1.07 1.09 1.03 0.78 0.69 0.53
1.94 2.28 1.85 1.28 1.36 2.04 4.48 4.27 4.57 4.59 2.74 2.18 1.79 1.30 1.13 0.94 0.55 0.40 0.29 0.26 0.42 0.37 0.42 0.49 0.70 0.86 0.78 0.38 0.40 0.43 0.30 0.55 0.86 1.31 0.62 0.43 0.88 0.96 0.95 0.98 0.78 0.72 0.74
1.33 1.65 1.27 1.16 0.94 1.14 2.23 1.95 2.41 3.15 3.40 2.31 1.98 1.24 1.23 0.86 0.54 0.50 0.31 0.32 0.64 0.42 0.18 0.23 0.38 0.47 0.44 0.41 0.29 0.25 0.29 0.64 0.53 1.36 0.97 0.55 1.15 1.17 1.19 0.88 1.05 1.18 1.05
0.71 0.90 0.92 0.52 0.66 1.01 1.01 1.24 1.52 1.52 3.14 2.89 2.20 1.67 1.35 0.88 0.41 0.33 0.24 0.24 0.23 0.40 0.20 0.14 0.19 0.26 0.37 0.48 0.49 0.36 0.36 0.57 0.47 0.73 0.72 0.50 0.87 1.24 1.05 0.89 0.91 0.99 1.16
0.73 0.83 0.81 0.67 0.64 0.58 0.40 0.53 1.23 1.02 1.79 2.85 2.29 1.81 1.33 0.82 0.39 0.20 0.20 0.23 0.16 0.25 0.33 0.30 0.23 0.31 0.39 0.52 0.56 0.40 0.56 0.67 0.66 0.68 0.58 0.26 0.48 1.04 0.91 0.64 0.78 0.92 0.92
0.72 0.90 0.68 0.64 0.65 0.53 0.38 0.39 0.87 0.88 1.01 2.13 1.76 1.28 1.46 0.86 0.48 0.34 0.31 0.18 0.22 0.23 0.25 0.44 0.41 0.36 0.37 0.38 0.58 0.61 0.66 0.71 0.73 0.90 0.87 0.64 0.46 0.46 0.97 1.10 0.69 0.83 1.03
0.53 0.61 0.51 0.71 0.78 0.71 0.49 0.55 0.74 0.84 0.90 1.40 1.16 1.16 1.44 0.87 0.66 0.49 0.39 0.27 0.18 0.20 0.19 0.22 0.36 0.64 0.72 0.56 0.51 0.72 0.84 0.56 0.52 0.54 0.51 0.40 0.35 0.35 0.52 1.02 1.40 1.01 0.72
0.23 0.52 0.77 0.95 1.27 1.19 0.49 0.59 0.68 0.74 0.82 1.12 0.95 1.04 1.44 0.85 0.61 0.53 0.44 0.33 0.26 0.18 0.16 0.13 0.15 0.39 0.60 0.54 0.45 0.49 0.51 0.47 0.38 0.31 0.32 0.25 0.23 0.20 0.30 0.43 0.74 1.65 1.42
0.21 0.38 0.67 1.00 1.17 1.40 1.28 1.58 1.30 0.93 0.78 0.86 0.79 0.92 1.52 1.05 0.82 0.49 0.34 0.35 0.29 0.19 0.13 0.13 0.14 0.16 0.31 0.34 0.37 0.38 0.38 0.40 0.47 0.49 0.32 0.29 0.24 0.24 0.36 0.59 0.71 0.87 1.06
0.09 0.38 0.79 1.20 1.72 2.90 2.09 1.22 0.73 0.71 0.74 0.74 0.85 0.90 1.45 0.96 0.91 0.95 0.56 0.49 0.42 0.25 0.15 0.14 0.13 0.19 0.13 0.19 0.34 0.42 0.34 0.38 0.40 0.60 0.69 0.54 0.35 0.32 0.29 0.60 0.71 0.56 0.65
0.16 0.53 0.85 0.92 1.05 0.95 0.50 0.42 0.42 0.58 0.78 0.89 0.96 0.80 1.45 1.20 0.79 1.03 1.14 0.66 0.57 0.37 0.27 0.20 0.25 0.29 0.38 0.35 0.60 0.50 0.40 0.29 0.33 0.31 0.45 0.45 0.45 0.41 0.41 0.44 0.76 0.54 0.46
0.33 0.38 0.26 0.15 0.11 0.17 0.19 0.23 0.23 0.29 0.47 0.56 1.17 0.89 1.10 1.29 0.69 0.67 0.98 1.02 0.94 0.66 0.67 0.64 0.53 0.43 0.38 0.52 0.54 0.44 0.36 0.24 0.20 0.30 0.28 0.24 0.26 0.44 0.46 0.55 0.62 0.54 0.57
0.04 0.10 0.08 0.08 0.09 0.11 0.14 0.16 0.23 0.23 0.34 0.56 1.22 1.29 0.93 1.29 0.92 0.60 0.78 0.89 0.94 0.81 0.73 0.60 0.63 0.59 0.53 0.40 0.53 0.51 0.40 0.26 0.16 0.15 0.19 0.21 0.20 0.20 0.24 0.42 0.52 0.51 0.62
0.07 0.03 0.09 0.13 0.08 0.08 0.10 0.11 0.13 0.14 0.18 0.32 0.69 1.01 1.09 1.10 0.98 0.74 0.72 0.78 0.89 0.70 0.61 0.47 0.48 0.56 0.62 0.42 0.47 0.44 0.29 0.26 0.37 0.30 0.17 0.24 0.30 0.23 0.23 0.35 0.37 0.38 0.55
0.04 0.09 0.16 0.16 0.17 0.19 0.15 0.16 0.20 0.20 0.25 0.28 0.50 1.03 1.15 1.21 1.38 1.15 1.02 1.12 0.97 0.96 0.71 0.64 0.58 0.65 0.61 0.48 0.33 0.36 0.33 0.22 0.15 0.24 0.24 0.20 0.31 0.24 0.24 0.27 0.36 0.45 0.56
0.07 0.14 0.24 0.23 0.27 0.30 0.30 0.26 0.31 0.37 0.28 0.28 0.41 0.97 1.28 1.27 1.27 1.42 1.79 1.80 1.59 1.41 1.41 1.10 0.93 0.79 0.62 0.58 0.56 0.51 0.48 0.50 0.40 0.47 0.46 0.29 0.29 0.29 0.30 0.27 0.21 0.23 0.36

GFSSE_prec_precacc_246.txt.gz
Total_Precipitation_Accumulation
0.40 0.30 0.26 0.09 0.09 0.07 0.08 0.04 0.02 0.03 0.03 0.04 0.04 0.05 0.11 0.14 0.11 0.10 0.11 0.12 0.16 0.17 0.14 0.11 0.19 0.27 0.29 0.37 0.37 0.46 0.34 0.35 0.58 1.29 1.70 1.50 1.58 1.39 1.18 1.32 1.24 1.26 1.75
0.88 0.59 0.66 0.26 0.08 0.05 0.07 0.07 0.10 0.04 0.05 0.08 0.04 0.06 0.12 0.17 0.13 0.11 0.14 0.27 0.37 0.39 0.34 0.23 0.34 0.49 0.46 0.46 0.37 0.40 0.26 0.10 0.14 0.47 1.23 1.41 1.05 0.97 1.20 1.62 1.56 1.30 1.34
1.21 1.01 0.81 0.69 0.22 0.15 0.33 0.12 0.05 0.05 0.04 0.03 0.03 0.04 0.17 0.21 0.21 0.27 0.46 0.45 0.63 0.62 0.46 0.34 0.54 0.78 0.80 0.61 0.43 0.46 0.24 0.10 0.13 0.21 0.53 0.78 1.10 1.29 0.94 1.09 1.33 1.26 1.34
0.96 1.23 0.92 1.07 1.12 0.53 0.43 0.23 0.17 0.10 0.05 0.03 0.12 0.14 0.33 0.25 0.37 0.88 1.15 1.05 0.89 0.84 0.58 0.49 0.52 1.36 1.05 0.85 0.52 0.31 0.21 0.18 0.24 0.20 0.27 0.58 1.10 1.37 0.82 0.68 0.84 1.07 1.32
0.94 0.60 0.96 1.12 1.00 0.80 0.47 0.28 0.43 0.48 0.34 0.08 0.08 0.28 0.45 0.67 1.42 2.37 2.62 1.60 1.70 1.62 1.16 0.90 0.69 1.01 1.19 0.84 0.49 0.32 0.25 0.17 0.23 0.42 0.54 0.63 0.75 1.27 0.90 0.71 0.94 1.08 1.11
1.21 1.42 2.08 1.85 1.56 0.87 0.63 0.82 1.08 1.07 0.82 0.56 0.49 0.71 1.00 1.52 2.45 2.41 1.57 1.38 1.80 3.02 1.63 1.18 0.68 0.39 0.30 0.59 0.62 0.66 0.39 0.23 0.55 0.92 0.89 0.65 0.59 0.93 0.70 0.51 0.66 0.94 0.67
2.60 2.47 3.19 4.34 3.84 2.91 1.91 1.42 1.43 1.65 1.34 1.37 1.77 1.83 1.87 1.84 2.50 1.41 0.69 1.06 2.45 2.34 1.07 0.94 0.57 0.32 0.45 0.22 0.27 0.42 0.39 0.33 0.53 0.95 0.95 1.09 1.34 1.46 0.58 0.64 0.66 0.60 0.59
6.23 5.29 5.62 6.71 5.83 4.59 3.53 2.32 2.32 2.14 1.88 1.91 1.67 2.14 2.46 1.35 1.12 0.77 0.42 0.44 0.64 0.56 0.57 0.47 0.22 0.27 0.43 0.28 0.23 0.26 0.38 0.42 0.96 2.03 2.03 1.13 1.20 1.26 0.72 0.86 0.78 0.57 0.46
4.44 5.86 6.90 7.55 8.35 7.50 4.24 3.28 3.30 3.37 2.92 2.39 2.16 1.95 2.16 1.62 1.25 0.97 0.45 0.32 0.26 0.17 0.30 0.37 0.28 0.36 0.41 0.43 0.47 0.43 0.58 0.78 1.19 2.61 2.13 1.68 0.99 1.35 1.32 0.93 0.73 0.51 0.35
2.47 3.25 3.60 3.74 7.19 11.79 7.99 5.03 4.14 3.79 3.59 2.59 2.39 1.76 1.31 1.54 1.54 1.39 0.58 0.29 0.23 0.16 0.31 0.56 0.65 0.70 0.50 0.52 0.63 0.47 0.65 0.65 0.83 0.66 0.67 0.84 0.72 1.31 1.48 1.24 0.76 0.57 0.47
2.72 2.38 1.89 2.61 3.40 5.97 9.68 6.53 5.18 4.21 2.78 2.60 2.23 1.68 1.18 0.95 0.89 0.83 0.48 0.32 0.27 0.27 0.45 0.76 0.73 0.80 0.98 0.69 0.75 0.81 0.53 0.32 0.63 0.71 0.34 0.62 0.68 1.07 1.09 1.03 0.78 0.69 0.53
1.94 2.28 1.85 1.28 1.37 2.04 4.48 4.27 4.57 4.59 2.74 2.18 1.79 1.30 1.13 0.94 0.55 0.40 0.29 0.26 0.42 0.37 0.42 0.49 0.70 0.86 0.78 0.38 0.40 0.43 0.30 0.55 0.86 1.31 0.62 0.43 0.88 0.96 0.95 0.98 0.78 0.72 0.74
1.33 1.65 1.27 1.16 0.94 1.14 2.23 1.95 2.41 3.15 3.40 2.31 1.98 1.24 1.23 0.86 0.54 0.50 0.31 0.32 0.64 0.42 0.18 0.23 0.38 0.47 0.44 0.41 0.29 0.25 0.29 0.64 0.53 1.36 0.97 0.55 1.15 1.17 1.19 0.88 1.05 1.18 1.05
0.71 0.90 0.92 0.52 0.66 1.01 1.01 1.24 1.52 1.52 3.14 2.89 2.20 1.67 1.35 0.88 0.41 0.33 0.24 0.24 0.23 0.40 0.20 0.14 0.19 0.26 0.37 0.48 0.49 0.36 0.36 0.57 0.47 0.73 0.72 0.50 0.87 1.24 1.05 0.89 0.91 0.99 1.16
0.73 0.83 0.81 0.67 0.64 0.58 0.40 0.53 1.23 1.02 1.79 2.85 2.29 1.81 1.33 0.82 0.39 0.20 0.20 0.23 0.16 0.25 0.33 0.30 0.23 0.31 0.39 0.52 0.56 0.40 0.56 0.67 0.66 0.68 0.58 0.26 0.48 1.04 0.91 0.64 0.78 0.93 0.92
0.72 0.90 0.68 0.64 0.65 0.53 0.38 0.39 0.87 0.88 1.01 2.13 1.76 1.28 1.46 0.86 0.48 0.34 0.31 0.18 0.22 0.23 0.25 0.44 0.41 0.36 0.37 0.38 0.58 0.61 0.66 0.71 0.73 0.90 0.87 0.64 0.46 0.46 0.97 1.10 0.69 0.83 1.03
0.53 0.61 0.51 0.71 0.78 0.71 0.49 0.55 0.74 0.84 0.90 1.40 1.16 1.16 1.44 0.87 0.66 0.49 0.39 0.27 0.18 0.20 0.19 0.22 0.36 0.64 0.72 0.56 0.51 0.72 0.84 0.56 0.52 0.54 0.51 0.40 0.35 0.35 0.52 1.02 1.40 1.01 0.72
0.23 0.52 0.77 0.95 1.27 1.19 0.49 0.59 0.68 0.74 0.82 1.12 0.95 1.04 1.44 0.85 0.61 0.53 0.44 0.33 0.26 0.18 0.16 0.13 0.15 0.39 0.60 0.54 0.45 0.49 0.51 0.47 0.38 0.31 0.32 0.25 0.23 0.20 0.30 0.43 0.74 1.65 1.42
0.21 0.38 0.67 1.00 1.17 1.40 1.28 1.58 1.30 0.93 0.78 0.86 0.79 0.92 1.52 1.05 0.82 0.49 0.34 0.35 0.29 0.19 0.13 0.13 0.14 0.16 0.31 0.34 0.37 0.38 0.38 0.45 0.51 0.51 0.32 0.29 0.24 0.24 0.36 0.60 0.71 0.87 1.06
0.09 0.38 0.79 1.20 1.72 2.90 2.09 1.22 0.73 0.71 0.74 0.74 0.85 0.90 1.45 0.96 0.91 0.95 0.56 0.49 0.42 0.25 0.15 0.14 0.13 0.19 0.13 0.19 0.34 0.42 0.35 0.49 0.44 0.65 0.74 0.55 0.35 0.32 0.29 0.61 0.71 0.56 0.65
0.16 0.53 0.85 0.92 1.05 0.95 0.50 0.42 0.42 0.58 0.78 0.89 0.96 0.80 1.45 1.20 0.79 1.03 1.14 0.66 0.57 0.37 0.27 0.20 0.25 0.29 0.38 0.35 0.60 0.50 0.41 0.35 0.39 0.39 0.50 0.51 0.49 0.41 0.42 0.44 0.76 0.54 0.46
0.33 0.38 0.26 0.15 0.11 0.17 0.19 0.23 0.23 0.29 0.47 0.56 1.17 0.89 1.10 1.29 0.69 0.67 0.98 1.02 0.94 0.66 0.67 0.64 0.53 0.43 0.38 0.52 0.55 0.48 0.43 0.34 0.24 0.35 0.37 0.32 0.29 0.44 0.46 0.55 0.62 0.54 0.57
0.04 0.10 0.08 0.08 0.09 0.11 0.14 0.16 0.23 0.23 0.34 0.56 1.22 1.29 0.93 1.29 0.92 0.60 0.78 0.89 0.94 0.81 0.73 0.60 0.63 0.59 0.53 0.40 0.53 0.52 0.42 0.30 0.17 0.16 0.20 0.21 0.20 0.20 0.24 0.42 0.52 0.51 0.62
0.07 0.03 0.09 0.13 0.08 0.08 0.10 0.11 0.13 0.14 0.18 0.32 0.69 1.01 1.09 1.10 0.98 0.74 0.72 0.78 0.89 0.70 0.61 0.47 0.48 0.56 0.62 0.43 0.47 0.44 0.29 0.26 0.37 0.30 0.17 0.24 0.30 0.23 0.23 0.35 0.37 0.38 0.55
0.04 0.09 0.16 0.16 0.17 0.19 0.15 0.16 0.20 0.20 0.25 0.28 0.50 1.03 1.15 1.21 1.38 1.15 1.02 1.12 0.97 0.96 0.71 0.64 0.58 0.65 0.61 0.48 0.33 0.36 0.33 0.22 0.16 0.25 0.24 0.20 0.31 0.24 0.24 0.27 0.36 0.45 0.56
0.07 0.14 0.24 0.23 0.27 0.30 0.30 0.26 0.31 0.37 0.28 0.28 0.41 0.97 1.28 1.27 1.27 1.42 1.79 1.80 1.59 1.41 1.41 1.10 0.93 0.79 0.62 0.58 0.56 0.51 0.48 0.50 0.42 0.50 0.46 0.29 0.29 0.29 0.30 0.27 0.21 0.23 0.36

GFSSE_prec_precacc_249.txt.gz
Total_Precipitation_Accumulation
0.40 0.30 0.26 0.09 0.09 0.07 0.08 0.04 0.02 0.03 0.03 0.04 0.04 0.05 0.11 0.14 0.11 0.10 0.11 0.12 0.16 0.17 0.14 0.11 0.19 0.27 0.29 0.37 0.37 0.46 0.34 0.35 0.58 1.29 1.70 1.50 1.58 1.39 1.18 1.33 1.25 1.26 1.76
0.88 0.59 0.66 0.26 0.08 0.05 0.07 0.07 0.10 0.04 0.05 0.08 0.04 0.06 0.12 0.17 0.13 0.11 0.14 0.27 0.37 0.39 0.34 0.23 0.34 0.49 0.46 0.46 0.37 0.40 0.26 0.10 0.14 0.47 1.23 1.41 1.05 0.97 1.20 1.62 1.56 1.30 1.35
1.21 1.01 0.81 0.69 0.22 0.15 0.33 0.12 0.05 0.05 0.04 0.03 0.03 0.04 0.17 0.21 0.21 0.27 0.46 0.45 0.63 0.62 0.46 0.34 0.54 0.78 0.80 0.61 0.43 0.46 0.24 0.10 0.13 0.21 0.53 0.78 1.10 1.29 0.94 1.09 1.33 1.26 1.35
0.96 1.23 0.92 1.07 1.12 0.53 0.43 0.23 0.17 0.10 0.05 0.03 0.12 0.14 0.33 0.25 0.37 0.88 1.15 1.05 0.89 0.84 0.58 0.49 0.52 1.36 1.05 0.85 0.52 0.31 0.21 0.18 0.24 0.20 0.27 0.58 1.10 1.37 0.82 0.68 0.85 1.08 1.32
0.94 0.60 0.96 1.12 1.00 0.80 0.47 0.28 0.43 0.48 0.34 0.08 0.08 0.28 0.45 0.67 1.42 2.37 2.62 1.60 1.70 1.62 1.16 0.90 0.69 1.01 1.19 0.84 0.49 0.32 0.25 0.17 0.23 0.42 0.54 0.63 0.75 1.27 0.90 0.71 0.94 1.08 1.11
1.21 1.42 2.08 1.85 1.56 0.87 0.63 0.82 1.08 1.07 0.82 0.56 0.49 0.71 1.00 1.52 2.45 2.41 1.57 1.38 1.80 3.02 1.63 1.18 0.68 0.39 0.30 0.59 0.62 0.66 0.39 0.23 0.55 0.92 0.89 0.65 0.59 0.93 0.70 0.51 0.66 0.94 0.67
2.60 2.47 3.19 4.34 3.84 2.91 1.91 1.42 1.43 1.65 1.34 1.37 1.77 1.83 1.87 1.84 2.50 1.41 0.69 1.06 2.45 2.34 1.07 0.94 0.57 0.32 0.45 0.22 0.27 0.42 0.39 0.33 0.53 0.95 0.95 1.09 1.34 1.46 0.58 0.64 0.66 0.60 0.59
6.23 5.29 5.62 6.71 5.83 4.59 3.53 2.32 2.32 2.14 1.88 1.91 1.67 2.14 2.46 1.35 1.12 0.77 0.42 0.44 0.64 0.56 0.57 0.47 0.22 0.27 0.43 0.28 0.23 0.26 0.38 0.42 0.96 2.03 2.03 1.13 1.20 1.26 0.72 0.86 0.78 0.57 0.46
4.44 5.86 6.90 7.55 8.35 7.50 4.24 3.28 3.30 3.37 2.92 2.39 2.16 1.95 2.16 1.62 1.25 0.97 0.45 0.32 0.26 0.17 0.30 0.37 0.28 0.36 0.41 0.43 0.47 0.43 0.58 0.78 1.19 2.61 2.13 1.68 0.99 1.35 1.32 0.93 0.73 0.51 0.35
2.47 3.25 3.60 3.74 7.19 11.79 7.99 5.03 4.14 3.79 3.59 2.59 2.39 1.76 1.31 1.54 1.54 1.39 0.58 0.29 0.23 0.16 0.31 0.56 0.65 0.70 0.50 0.52 0.63 0.47 0.65 0.65 0.83 0.66 0.67 0.84 0.72 1.31 1.48 1.24 0.76 0.57 0.47
2.72 2.38 1.89 2.61 3.40 5.97 9.68 6.53 5.18 4.21 2.78 2.60 2.23 1.68 1.18 0.95 0.89 0.83 0.48 0.32 0.27 0.27 0.45 0.76 0.73 0.80 0.98 0.69 0.75 0.81 0.53 0.32 0.63 0.71 0.34 0.62 0.68 1.07 1.09 1.03 0.78 0.69 0.53
1.94 2.28 1.85 1.28 1.37 2.04 4.48 4.27 4.57 4.59 2.74 2.18 1.79 1.30 1.13 0.94 0.55 0.40 0.29 0.26 0.42 0.37 0.42 0.49 0.70 0.86 0.78 0.38 0.40 0.43 0.30 0.55 0.86 1.31 0.62 0.43 0.88 0.96 0.95 0.98 0.78 0.72 0.74
1.33 1.65 1.27 1.16 0.94 1.14 2.23 1.95 2.41 3.15 3.40 2.31 1.98 1.24 1.23 0.86 0.54 0.50 0.31 0.32 0.64 0.42 0.18 0.23 0.38 0.47 0.44 0.41 0.29 0.25 0.29 0.64 0.53 1.36 0.97 0.55 1.15 1.17 1.19 0.88 1.05 1.18 1.05
0.71 0.90 0.92 0.52 0.66 1.01 1.01 1.24 1.52 1.52 3.14 2.89 2.20 1.67 1.35 0.88 0.41 0.33 0.24 0.24 0.23 0.40 0.20 0.14 0.19 0.26 0.37 0.48 0.49 0.36 0.36 0.57 0.47 0.73 0.72 0.50 0.87 1.25 1.06 0.89 0.91 0.99 1.16
0.73 0.83 0.81 0.67 0.64 0.58 0.40 0.53 1.23 1.02 1.79 2.85 2.29 1.81 1.33 0.82 0.39 0.20 0.20 0.23 0.16 0.25 0.33 0.30 0.23 0.31 0.39 0.52 0.56 0.40 0.56 0.67 0.66 0.68 0.58 0.26 0.48 1.05 0.93 0.64 0.79 0.94 0.92
0.72 0.90 0.68 0.64 0.65 0.53 0.38 0.39 0.87 0.88 1.01 2.13 1.76 1.28 1.46 0.86 0.48 0.34 0.31 0.18 0.22 0.23 0.25 0.44 0.41 0.36 0.37 0.38 0.58 0.61 0.66 0.71 0.73 0.90 0.87 0.64 0.46 0.46 0.97 1.11 0.70 0.85 1.06
0.53 0.61 0.51 0.71 0.78 0.71 0.49 0.55 0.74 0.84 0.90 1.40 1.16 1.16 1.44 0.87 0.66 0.49 0.39 0.27 0.18 0.20 0.19 0.22 0.36 0.64 0.72 0.56 0.51 0.72 0.84 0.56 0.52 0.54 0.51 0.40 0.35 0.35 0.52 1.02 1.40 1.02 0.75
0.23 0.52 0.77 0.95 1.27 1.19 0.49 0.59 0.68 0.74 0.82 1.12 0.95 1.04 1.44 0.85 0.61 0.53 0.44 0.33 0.26 0.18 0.16 0.13 0.15 0.39 0.60 0.54 0.45 0.49 0.51 0.47 0.38 0.31 0.32 0.25 0.23 0.20 0.30 0.43 0.74 1.65 1.42
0.21 0.38 0.67 1.00 1.17 1.40 1.28 1.58 1.30 0.93 0.78 0.86 0.79 0.92 1.52 1.05 0.82 0.49 0.34 0.35 0.29 0.19 0.13 0.13 0.14 0.16 0.31 0.34 0.37 0.38 0.38 0.45 0.53 0.59 0.32 0.29 0.24 0.24 0.36 0.60 0.71 0.87 1.06
0.09 0.38 0.79 1.20 1.72 2.90 2.09 1.22 0.73 0.71 0.74 0.74 0.85 0.90 1.45 0.96 0.91 0.95 0.56 0.49 0.42 0.25 0.15 0.14 0.13 0.19 0.13 0.19 0.34 0.42 0.35 0.50 0.56 0.69 0.78 0.61 0.37 0.32 0.29 0.61 0.71 0.56 0.65
0.16 0.53 0.85 0.92 1.05 0.95 0.50 0.42 0.42 0.58 0.78 0.89 0.96 0.80 1.45 1.20 0.79 1.03 1.14 0.66 0.57 0.37 0.27 0.20 0.25 0.29 0.38 0.35 0.60 0.50 0.41 0.37 0.41 0.46 0.55 0.60 0.65 0.48 0.44 0.44 0.76 0.54 0.46
0.33 0.38 0.26 0.15 0.11 0.17 0.19 0.23 0.23 0.29 0.47 0.56 1.17 0.89 1.10 1.29 0.69 0.67 0.98 1.02 0.94 0.66 0.67 0.64 0.53 0.43 0.38 0.52 0.55 0.48 0.43 0.40 0.28 0.36 0.41 0.35 0.35 0.48 0.47 0.55 0.62 0.54 0.57
0.04 0.10 0.08 0.08 0.09 0.11 0.14 0.16 0.23 0.23 0.34 0.56 1.22 1.29 0.93 1.29 0.92 0.60 0.78 0.89 0.94 0.81 0.73 0.60 0.63 0.59 0.53 0.40 0.53 0.52 0.42 0.35 0.24 0.16 0.20 0.21 0.20 0.21 0.24 0.42 0.52 0.51 0.62
0.07 0.03 0.09 0.13 0.08 0.08 0.10 0.11 0.13 0.14 0.18 0.32 0.69 1.01 1.09 1.10 0.98 0.74 0.72 0.78 0.89 0.70 0.61 0.47 0.48 0.56 0.62 0.43 0.47 0.44 0.29 0.28 0.39 0.30 0.17 0.24 0.30 0.23 0.23 0.35 0.37 0.38 0.55
0.04 0.09 0.16 0.16 0.17 0.19 0.15 0.16 0.20 0.20 0.25 0.28 0.50 1.03 1.15 1.21 1.38 1.15 1.02 1.12 0.97 0.96 0.71 0.64 0.58 0.65 0.61 0.48 0.33 0.36 0.34 0.28 0.19 0.26 0.24 0.20 0.31 0.24 0.24 0.27 0.36 0.45 0.56
0.07 0.14 0.24 0.23 0.27 0.30 0.30 0.26 0.31 0.37 0.28 0.28 0.41 0.97 1.28 1.27 1.27 1.42 1.79 1.80 1.59 1.41 1.41 1.10 0.93 0.79 0.62 0.58 0.56 0.52 0.52 0.57 0.45 0.51 0.46 0.29 0.29 0.29 0.30 0.27 0.21 0.23 0.36